Observation data for Romero 11SSW on 04/17/2021      Previous  Date  Next       Current Mesonet Observations  Soil Data  Daily Summary Page  Observations in Plain Language
KBR1 170500Z 02014KT 04/M02 A3021 RMK A01 T00371023  RH  065%=      5-min Rain = 0
KBR1 170501Z 03016KT 04/M02 A3021 RMK A01 T00361024  RH  065%=      5-min Rain = 0
KBR1 170502Z 03015KT 04/M02 A3021 RMK A01 T00361024  RH  064%=      5-min Rain = 0
KBR1 170503Z 03012KT 04/M02 A3021 RMK A01 T00361024  RH  065%=      5-min Rain = 0
KBR1 170504Z 02013KT 04/M02 A3021 RMK A01 T00361024  RH  065%=      5-min Rain = 0
KBR1 170505Z 02013KT 04/M02 A3021 RMK A01 T00361023  RH  065%=      5-min Rain = 0
KBR1 170506Z 03013KT 04/M02 A3021 RMK A01 T00361023  RH  065%=      5-min Rain = 0
KBR1 170507Z 03016KT 04/M02 A3021 RMK A01 T00361023  RH  065%=      5-min Rain = 0
KBR1 170508Z 03014KT 04/M02 A3021 RMK A01 T00361024  RH  065%=      5-min Rain = 0
KBR1 170509Z 02013KT 04/M02 A3021 RMK A01 T00361023  RH  065%=      5-min Rain = 0
KBR1 170510Z 02012KT 04/M02 A3021 RMK A01 T00361023  RH  066%=      5-min Rain = 0
KBR1 170511Z 02014KT 04/M02 A3021 RMK A01 T00351023  RH  066%=      5-min Rain = 0
KBR1 170512Z 02015KT 04/M02 A3021 RMK A01 T00351023  RH  066%=      5-min Rain = 0
KBR1 170513Z 03015KT 04/M02 A3021 RMK A01 T00351023  RH  066%=      5-min Rain = 0
KBR1 170514Z 02014KT 04/M02 A3021 RMK A01 T00351023  RH  066%=      5-min Rain = 0
KBR1 170515Z 03012KT 04/M02 A3021 RMK A01 T00351023  RH  066%=      5-min Rain = 0
KBR1 170516Z 02015KT 04/M02 A3021 RMK A01 T00351023  RH  066%=      5-min Rain = 0
KBR1 170517Z 02015KT 04/M02 A3021 RMK A01 T00351024  RH  065%=      5-min Rain = 0
KBR1 170518Z 02016KT 04/M02 A3021 RMK A01 T00351024  RH  066%=      5-min Rain = 0
KBR1 170519Z 02014KT 04/M02 A3021 RMK A01 T00351024  RH  065%=      5-min Rain = 0
KBR1 170520Z 02017KT 03/M02 A3021 RMK A01 T00341024  RH  065%=      5-min Rain = 0
KBR1 170521Z 02016KT 03/M03 A3021 RMK A01 T00341025  RH  065%=      5-min Rain = 0
KBR1 170522Z 02016KT 03/M02 A3021 RMK A01 T00341024  RH  065%=      5-min Rain = 0
KBR1 170523Z 02014KT 03/M02 A3021 RMK A01 T00341024  RH  066%=      5-min Rain = 0
KBR1 170524Z 02015KT 03/M02 A302 RMK A01 T00341024  RH  066%=      5-min Rain = 0
KBR1 170525Z 02016KT 03/M02 A302 RMK A01 T00341024  RH  066%=      5-min Rain = 0
KBR1 170526Z 02018KT 03/M03 A302 RMK A01 T00341025  RH  066%=      5-min Rain = 0
KBR1 170527Z 02017KT 03/M03 A302 RMK A01 T00341025  RH  065%=      5-min Rain = 0
KBR1 170528Z 02016KT 03/M03 A302 RMK A01 T00341026  RH  065%=      5-min Rain = 0
KBR1 170529Z 02016KT 03/M03 A302 RMK A01 T00341026  RH  065%=      5-min Rain = 0
KBR1 170530Z 02017KT 03/M03 A302 RMK A01 T00341026  RH  065%=      5-min Rain = 0
KBR1 170531Z 02016KT 03/M03 A302 RMK A01 T00341026  RH  065%=      5-min Rain = 0
KBR1 170532Z 02015KT 03/M03 A302 RMK A01 T00331026  RH  065%=      5-min Rain = 0
KBR1 170533Z 02019KT 03/M03 A302 RMK A01 T00331027  RH  065%=      5-min Rain = 0
KBR1 170534Z 01018KT 03/M03 A302 RMK A01 T00331027  RH  065%=      5-min Rain = 0
KBR1 170535Z 02017KT 03/M03 A302 RMK A01 T00331027  RH  065%=      5-min Rain = 0
KBR1 170536Z 02015KT 03/M03 A302 RMK A01 T00331026  RH  065%=      5-min Rain = 0
KBR1 170537Z 02020KT 03/M03 A302 RMK A01 T00331027  RH  065%=      5-min Rain = 0
KBR1 170538Z 02017KT 03/M03 A302 RMK A01 T00331028  RH  064%=      5-min Rain = 0
KBR1 170539Z 02018KT 03/M03 A302 RMK A01 T00331028  RH  064%=      5-min Rain = 0
KBR1 170540Z 02017KT 03/M03 A302 RMK A01 T00331028  RH  064%=      5-min Rain = 0
KBR1 170541Z 02017KT 03/M03 A302 RMK A01 T00331028  RH  064%=      5-min Rain = 0
KBR1 170542Z 02016KT 03/M03 A302 RMK A01 T00331028  RH  064%=      5-min Rain = 0
KBR1 170543Z 02018KT 03/M03 A3019 RMK A01 T00331027  RH  064%=      5-min Rain = 0
KBR1 170544Z 02016KT 03/M03 A302 RMK A01 T00331028  RH  064%=      5-min Rain = 0
KBR1 170545Z 02018KT 03/M03 A302 RMK A01 T00331028  RH  064%=      5-min Rain = 0
KBR1 170546Z 01018KT 03/M03 A302 RMK A01 T00331028  RH  064%=      5-min Rain = 0
KBR1 170547Z 02019KT 03/M03 A302 RMK A01 T00331028  RH  064%=      5-min Rain = 0
KBR1 170548Z 02017KT 03/M03 A302 RMK A01 T00331029  RH  064%=      5-min Rain = 0
KBR1 170549Z 02014KT 03/M03 A302 RMK A01 T00331028  RH  064%=      5-min Rain = 0
KBR1 170550Z 02017KT 03/M03 A302 RMK A01 T00321028  RH  065%=      5-min Rain = 0
KBR1 170551Z 02017G22KT 03/M03 A302 RMK A01 T00321029  RH  064%=      5-min Rain = 0
KBR1 170552Z 02018KT 03/M03 A302 RMK A01 T00321029  RH  064%=      5-min Rain = 0
KBR1 170553Z 02019KT 03/M03 A3019 RMK A01 T00321029  RH  064%=      5-min Rain = 0
KBR1 170554Z 02018KT 03/M03 A3019 RMK A01 T00321030  RH  064%=      5-min Rain = 0
KBR1 170555Z 02019KT 03/M03 A3019 RMK A01 T00321029  RH  064%=      5-min Rain = 0
KBR1 170556Z 02017KT 03/M03 A3019 RMK A01 T00311030  RH  064%=      5-min Rain = 0
KBR1 170557Z 02016KT 03/M03 A3019 RMK A01 T00321029  RH  064%=      5-min Rain = 0
KBR1 170558Z 02017KT 03/M03 A302 RMK A01 T00321029  RH  064%=      5-min Rain = 0
KBR1 170559Z 02015KT 03/M03 A302 RMK A01 T00311029  RH  064%=      5-min Rain = 0
KBR1 170600Z 02015G20KT 03/M03 A302 RMK A01 T00311030  RH  064%=      5-min Rain = 0
KBR1 170601Z 02015KT 03/M03 A302 RMK A01 T00311029  RH  065%=      5-min Rain = 0
KBR1 170602Z 02015KT 03/M03 A302 RMK A01 T00311029  RH  065%=      5-min Rain = 0
KBR1 170603Z 02019KT 03/M03 A3019 RMK A01 T00311030  RH  064%=      5-min Rain = 0
KBR1 170604Z 02017KT 03/M03 A3019 RMK A01 T00311030  RH  064%=      5-min Rain = 0
KBR1 170605Z 02017KT 03/M03 A3019 RMK A01 T00311030  RH  064%=      5-min Rain = 0
KBR1 170606Z 02019KT 03/M03 A3019 RMK A01 T00311030  RH  064%=      5-min Rain = 0
KBR1 170607Z 02019KT 03/M03 A3019 RMK A01 T00311031  RH  064%=      5-min Rain = 0
KBR1 170608Z 02018KT 03/M03 A3019 RMK A01 T00311031  RH  063%=      5-min Rain = 0
KBR1 170609Z 02019KT 03/M03 A3019 RMK A01 T00311031  RH  064%=      5-min Rain = 0
KBR1 170610Z 02017KT 03/M03 A3019 RMK A01 T00311031  RH  064%=      5-min Rain = 0
KBR1 170611Z 02017KT 03/M03 A302 RMK A01 T00311032  RH  064%=      5-min Rain = 0
KBR1 170612Z 02018KT 03/M03 A302 RMK A01 T00311032  RH  064%=      5-min Rain = 0
KBR1 170613Z 01016KT 03/M03 A302 RMK A01 T00311032  RH  063%=      5-min Rain = 0
KBR1 170614Z 01018KT 03/M03 A302 RMK A01 T00311032  RH  063%=      5-min Rain = 0
KBR1 170615Z 01017G24KT 03/M03 A3019 RMK A01 T00311032  RH  063%=      5-min Rain = 0
KBR1 170616Z 02020KT 03/M03 A3019 RMK A01 T00311033  RH  063%=      5-min Rain = 0
KBR1 170617Z 02016KT 03/M03 A3019 RMK A01 T00311033  RH  063%=      5-min Rain = 0
KBR1 170618Z 02020KT 03/M03 A3019 RMK A01 T00311032  RH  063%=      5-min Rain = 0
KBR1 170619Z 02019KT 03/M03 A3019 RMK A01 T00311033  RH  063%=      5-min Rain = 0
KBR1 170620Z 02017KT 03/M03 A3019 RMK A01 T00311033  RH  063%=      5-min Rain = 0
KBR1 170621Z 02017G22KT 03/M03 A3019 RMK A01 T00311032  RH  064%=      5-min Rain = 0
KBR1 170622Z 01018KT 03/M03 A3019 RMK A01 T00301032  RH  064%=      5-min Rain = 0
KBR1 170623Z 02016KT 03/M03 A3019 RMK A01 T00301031  RH  064%=      5-min Rain = 0
KBR1 170624Z 02015G22KT 03/M03 A3019 RMK A01 T00301031  RH  064%=      5-min Rain = 0
KBR1 170625Z 02019KT 03/M03 A3019 RMK A01 T00301031  RH  064%=      5-min Rain = 0
KBR1 170626Z 02018KT 03/M03 A3019 RMK A01 T00301031  RH  064%=      5-min Rain = 0
KBR1 170627Z 02020KT 03/M03 A3019 RMK A01 T00301031  RH  064%=      5-min Rain = 0
KBR1 170628Z 02017G22KT 03/M03 A3019 RMK A01 T00291032  RH  064%=      5-min Rain = 0
KBR1 170629Z 02017KT 03/M03 A3019 RMK A01 T00291032  RH  064%=      5-min Rain = 0
KBR1 170630Z 02016KT 03/M03 A3019 RMK A01 T00291031  RH  065%=      5-min Rain = 0
KBR1 170631Z 02016KT 03/M03 A3019 RMK A01 T00281032  RH  065%=      5-min Rain = 0
KBR1 170632Z 02015KT 03/M03 A3019 RMK A01 T00281032  RH  065%=      5-min Rain = 0
KBR1 170633Z 02018KT 03/M03 A3019 RMK A01 T00281031  RH  065%=      5-min Rain = 0
KBR1 170634Z 02017KT 03/M03 A3019 RMK A01 T00271032  RH  065%=      5-min Rain = 0
KBR1 170635Z 02017KT 03/M03 A3019 RMK A01 T00271032  RH  065%=      5-min Rain = 0
KBR1 170636Z 02015KT 03/M03 A3019 RMK A01 T00271032  RH  065%=      5-min Rain = 0
KBR1 170637Z 02018KT 03/M03 A3019 RMK A01 T00261032  RH  065%=      5-min Rain = 0
KBR1 170638Z 02019KT 03/M03 A3019 RMK A01 T00261032  RH  066%=      5-min Rain = 0
KBR1 170639Z 03019KT 03/M03 A3019 RMK A01 T00261033  RH  065%=      5-min Rain = 0
KBR1 170640Z 02018KT 03/M03 A3019 RMK A01 T00261032  RH  065%=      5-min Rain = 0
KBR1 170641Z 03016G21KT 03/M03 A3019 RMK A01 T00261032  RH  065%=      5-min Rain = 0
KBR1 170642Z 02017KT 03/M03 A3019 RMK A01 T00261032  RH  066%=      5-min Rain = 0
KBR1 170643Z 03016KT 03/M03 A3019 RMK A01 T00261032  RH  066%=      5-min Rain = 0
KBR1 170644Z 02017KT 03/M03 A3019 RMK A01 T00261032  RH  066%=      5-min Rain = 0
KBR1 170645Z 03015KT 03/M03 A3019 RMK A01 T00261032  RH  066%=      5-min Rain = 0
KBR1 170646Z 03016KT 03/M03 A3019 RMK A01 T00251032  RH  066%=      5-min Rain = 0
KBR1 170647Z 03018G23KT 03/M03 A3019 RMK A01 T00251032  RH  066%=      5-min Rain = 0
KBR1 170648Z 03019KT 03/M03 A3019 RMK A01 T00251033  RH  066%=      5-min Rain = 0
KBR1 170649Z 03019KT 03/M03 A3019 RMK A01 T00251033  RH  066%=      5-min Rain = 0
KBR1 170650Z 03017G22KT 03/M03 A3019 RMK A01 T00251033  RH  065%=      5-min Rain = 0
KBR1 170651Z 03017G22KT 03/M03 A3019 RMK A01 T00251033  RH  065%=      5-min Rain = 0
KBR1 170652Z 03017KT 03/M03 A3019 RMK A01 T00251033  RH  066%=      5-min Rain = 0
KBR1 170653Z 03017KT 03/M03 A3019 RMK A01 T00251033  RH  066%=      5-min Rain = 0
KBR1 170654Z 03018KT 03/M03 A3019 RMK A01 T00251032  RH  066%=      5-min Rain = 0
KBR1 170655Z 03018KT 03/M03 A3019 RMK A01 T00251032  RH  066%=      5-min Rain = 0
KBR1 170656Z 03017KT 03/M03 A3019 RMK A01 T00251033  RH  066%=      5-min Rain = 0
KBR1 170657Z 03016KT 03/M03 A3019 RMK A01 T00251033  RH  066%=      5-min Rain = 0
KBR1 170658Z 03015KT 03/M03 A3019 RMK A01 T00251032  RH  066%=      5-min Rain = 0
KBR1 170659Z 03016KT 03/M03 A3019 RMK A01 T00251032  RH  066%=      5-min Rain = 0
KBR1 170700Z 03016KT 03/M03 A3019 RMK A01 T00251032  RH  066%=      5-min Rain = 0
KBR1 170701Z 03015KT 03/M03 A3019 RMK A01 T00251032  RH  066%=      5-min Rain = 0
KBR1 170702Z 03016KT 03/M03 A3019 RMK A01 T00251032  RH  066%=      5-min Rain = 0
KBR1 170703Z 03013KT 03/M03 A3019 RMK A01 T00251032  RH  066%=      5-min Rain = 0
KBR1 170704Z 02013KT 03/M03 A302 RMK A01 T00251031  RH  066%=      5-min Rain = 0
KBR1 170705Z 02015G20KT 03/M03 A302 RMK A01 T00251031  RH  066%=      5-min Rain = 0
KBR1 170706Z 02015KT 03/M03 A302 RMK A01 T00251031  RH  066%=      5-min Rain = 0
KBR1 170707Z 03014KT 03/M03 A302 RMK A01 T00251031  RH  066%=      5-min Rain = 0
KBR1 170708Z 03015KT 03/M03 A302 RMK A01 T00251031  RH  066%=      5-min Rain = 0
KBR1 170709Z 02014KT 03/M03 A302 RMK A01 T00261031  RH  066%=      5-min Rain = 0
KBR1 170710Z 02015KT 03/M03 A302 RMK A01 T00261031  RH  066%=      5-min Rain = 0
KBR1 170711Z 03014KT 03/M03 A302 RMK A01 T00261030  RH  067%=      5-min Rain = 0
KBR1 170712Z 02015KT 03/M03 A302 RMK A01 T00251030  RH  067%=      5-min Rain = 0
KBR1 170713Z 02015KT 03/M03 A3019 RMK A01 T00261030  RH  067%=      5-min Rain = 0
KBR1 170714Z 02015KT 03/M03 A3019 RMK A01 T00261030  RH  067%=      5-min Rain = 0
KBR1 170715Z 02014G19KT 03/M03 A3019 RMK A01 T00251030  RH  067%=      5-min Rain = 0
KBR1 170716Z 02014KT 03/M03 A3019 RMK A01 T00251029  RH  067%=      5-min Rain = 0
KBR1 170717Z 02013KT 03/M03 A3019 RMK A01 T00261029  RH  067%=      5-min Rain = 0
KBR1 170718Z 02016KT 03/M03 A3019 RMK A01 T00251029  RH  068%=      5-min Rain = 0
KBR1 170719Z 03017KT 03/M03 A3019 RMK A01 T00261029  RH  067%=      5-min Rain = 0
KBR1 170720Z 02014KT 03/M03 A3019 RMK A01 T00261029  RH  067%=      5-min Rain = 0
KBR1 170721Z 02015KT 03/M03 A3019 RMK A01 T00261028  RH  068%=      5-min Rain = 0
KBR1 170722Z 02014KT 03/M03 A3019 RMK A01 T00251028  RH  068%=      5-min Rain = 0
KBR1 170723Z 02014KT 03/M03 A3019 RMK A01 T00251028  RH  068%=      5-min Rain = 0
KBR1 170724Z 02013KT 03/M03 A3019 RMK A01 T00251028  RH  068%=      5-min Rain = 0
KBR1 170725Z 02013KT 03/M03 A3019 RMK A01 T00251028  RH  068%=      5-min Rain = 0
KBR1 170726Z 03013KT 02/M03 A3019 RMK A01 T00241028  RH  068%=      5-min Rain = 0
KBR1 170727Z 02014KT 02/M03 A3019 RMK A01 T00241028  RH  069%=      5-min Rain = 0
KBR1 170728Z 02016KT 02/M03 A3019 RMK A01 T00241028  RH  069%=      5-min Rain = 0
KBR1 170729Z 02014KT 02/M03 A3019 RMK A01 T00241028  RH  068%=      5-min Rain = 0
KBR1 170730Z 02015G20KT 03/M03 A3019 RMK A01 T00251028  RH  068%=      5-min Rain = 0
KBR1 170731Z 01015KT 03/M03 A3019 RMK A01 T00251028  RH  068%=      5-min Rain = 0
KBR1 170732Z 02012KT 03/M03 A3019 RMK A01 T00251028  RH  068%=      5-min Rain = 0
KBR1 170733Z 02014KT 02/M03 A3019 RMK A01 T00241027  RH  069%=      5-min Rain = 0
KBR1 170734Z 02015KT 02/M03 A3019 RMK A01 T00241027  RH  069%=      5-min Rain = 0
KBR1 170735Z 02013KT 02/M03 A3019 RMK A01 T00241027  RH  069%=      5-min Rain = 0
KBR1 170736Z 02012KT 02/M03 A302 RMK A01 T00241027  RH  069%=      5-min Rain = 0
KBR1 170737Z 02014KT 02/M03 A302 RMK A01 T00241027  RH  069%=      5-min Rain = 0
KBR1 170738Z 02014KT 02/M03 A302 RMK A01 T00241027  RH  069%=      5-min Rain = 0
KBR1 170739Z 02014KT 02/M03 A302 RMK A01 T00241027  RH  069%=      5-min Rain = 0
KBR1 170740Z 02014KT 02/M03 A302 RMK A01 T00241027  RH  069%=      5-min Rain = 0
KBR1 170741Z 02013KT 02/M03 A302 RMK A01 T00241027  RH  069%=      5-min Rain = 0
KBR1 170742Z 02013KT 02/M03 A302 RMK A01 T00241027  RH  069%=      5-min Rain = 0
KBR1 170743Z 01011KT 02/M03 A302 RMK A01 T00241027  RH  069%=      5-min Rain = 0
KBR1 170744Z 02012KT 02/M03 A3019 RMK A01 T00241026  RH  070%=      5-min Rain = 0
KBR1 170745Z 02012KT 02/M03 A3019 RMK A01 T00241026  RH  070%=      5-min Rain = 0
KBR1 170746Z 01014KT 02/M03 A3019 RMK A01 T00241026  RH  070%=      5-min Rain = 0
KBR1 170747Z 01014KT 02/M03 A3019 RMK A01 T00241026  RH  070%=      5-min Rain = 0
KBR1 170748Z 01014KT 02/M03 A3019 RMK A01 T00241026  RH  070%=      5-min Rain = 0
KBR1 170749Z 01011KT 02/M03 A3019 RMK A01 T00241026  RH  070%=      5-min Rain = 0
KBR1 170750Z 02012KT 02/M03 A3019 RMK A01 T00231026  RH  070%=      5-min Rain = 0
KBR1 170751Z 01013KT 02/M03 A3019 RMK A01 T00231026  RH  070%=      5-min Rain = 0
KBR1 170752Z 02012KT 02/M03 A3019 RMK A01 T00221026  RH  070%=      5-min Rain = 0
KBR1 170753Z 02011KT 02/M03 A3019 RMK A01 T00231026  RH  070%=      5-min Rain = 0
KBR1 170754Z 01011KT 02/M03 A3019 RMK A01 T00221026  RH  070%=      5-min Rain = 0
KBR1 170755Z 01012KT 02/M03 A3019 RMK A01 T00221026  RH  070%=      5-min Rain = 0
KBR1 170756Z 02011KT 02/M03 A3019 RMK A01 T00221026  RH  071%=      5-min Rain = 0
KBR1 170757Z 02012KT 02/M03 A3019 RMK A01 T00221026  RH  071%=      5-min Rain = 0
KBR1 170758Z 01012KT 02/M03 A3019 RMK A01 T00221026  RH  071%=      5-min Rain = 0
KBR1 170759Z 02011KT 02/M03 A302 RMK A01 T00211026  RH  071%=      5-min Rain = 0
KBR1 170800Z 02010KT 02/M03 A302 RMK A01 T00211026  RH  071%=      5-min Rain = 0
KBR1 170801Z 01012KT 02/M03 A302 RMK A01 T00221026  RH  071%=      5-min Rain = 0
KBR1 170802Z 02010KT 02/M03 A302 RMK A01 T00211026  RH  071%=      5-min Rain = 0
KBR1 170803Z 02011KT 02/M03 A302 RMK A01 T00221026  RH  071%=      5-min Rain = 0
KBR1 170804Z 02012KT 02/M03 A302 RMK A01 T00211026  RH  071%=      5-min Rain = 0
KBR1 170805Z 02012KT 02/M03 A302 RMK A01 T00221026  RH  071%=      5-min Rain = 0
KBR1 170806Z 02011KT 02/M03 A302 RMK A01 T00221026  RH  071%=      5-min Rain = 0
KBR1 170807Z 02012KT 02/M03 A302 RMK A01 T00221026  RH  071%=      5-min Rain = 0
KBR1 170808Z 02010KT 02/M03 A302 RMK A01 T00221026  RH  071%=      5-min Rain = 0
KBR1 170809Z 02009KT 02/M03 A302 RMK A01 T00221025  RH  071%=      5-min Rain = 0
KBR1 170810Z 02011KT 02/M03 A302 RMK A01 T00221025  RH  071%=      5-min Rain = 0
KBR1 170811Z 02011KT 02/M03 A302 RMK A01 T00211026  RH  071%=      5-min Rain = 0
KBR1 170812Z 02013KT 02/M03 A302 RMK A01 T00221026  RH  071%=      5-min Rain = 0
KBR1 170813Z 02011KT 02/M03 A302 RMK A01 T00231026  RH  071%=      5-min Rain = 0
KBR1 170814Z 02010KT 02/M03 A302 RMK A01 T00231025  RH  070%=      5-min Rain = 0
KBR1 170815Z 01011KT 02/M03 A302 RMK A01 T00231025  RH  070%=      5-min Rain = 0
KBR1 170816Z 02011KT 02/M03 A302 RMK A01 T00231025  RH  070%=      5-min Rain = 0
KBR1 170817Z 02010KT 02/M03 A302 RMK A01 T00241025  RH  070%=      5-min Rain = 0
KBR1 170818Z 02011KT 02/M03 A302 RMK A01 T00241025  RH  070%=      5-min Rain = 0
KBR1 170819Z 02009KT 02/M03 A302 RMK A01 T00241025  RH  070%=      5-min Rain = 0
KBR1 170820Z 02011KT 02/M02 A302 RMK A01 T00241024  RH  071%=      5-min Rain = 0
KBR1 170821Z 02012KT 02/M03 A302 RMK A01 T00241025  RH  070%=      5-min Rain = 0
KBR1 170822Z 02011KT 02/M03 A302 RMK A01 T00241025  RH  070%=      5-min Rain = 0
KBR1 170823Z 02012KT 02/M03 A3019 RMK A01 T00241025  RH  070%=      5-min Rain = 0
KBR1 170824Z 02013KT 02/M02 A3019 RMK A01 T00241024  RH  071%=      5-min Rain = 0
KBR1 170825Z 02012KT 02/M02 A3019 RMK A01 T00241024  RH  071%=      5-min Rain = 0
KBR1 170826Z 02011KT 02/M02 A3019 RMK A01 T00231024  RH  071%=      5-min Rain = 0
KBR1 170827Z 02012KT 02/M02 A3019 RMK A01 T00231024  RH  071%=      5-min Rain = 0
KBR1 170828Z 02011KT 02/M02 A3019 RMK A01 T00221024  RH  071%=      5-min Rain = 0
KBR1 170829Z 02011KT 02/M02 A3019 RMK A01 T00221024  RH  072%=      5-min Rain = 0
KBR1 170830Z 02014KT 02/M02 A3019 RMK A01 T00211024  RH  072%=      5-min Rain = 0
KBR1 170831Z 02015KT 02/M02 A3018 RMK A01 T00211024  RH  072%=      5-min Rain = 0
KBR1 170832Z 02017KT 02/M02 A3018 RMK A01 T00211024  RH  072%=      5-min Rain = 0
KBR1 170833Z 02016KT 02/M02 A3018 RMK A01 T00221024  RH  072%=      5-min Rain = 0
KBR1 170834Z 02013KT 02/M02 A3018 RMK A01 T00221023  RH  072%=      5-min Rain = 0
KBR1 170835Z 02012KT 02/M02 A3018 RMK A01 T00211023  RH  072%=      5-min Rain = 0
KBR1 170836Z 02013KT 02/M02 A3018 RMK A01 T00211024  RH  072%=      5-min Rain = 0
KBR1 170837Z 02012KT 02/M02 A3018 RMK A01 T00211023  RH  073%=      5-min Rain = 0
KBR1 170838Z 02013KT 02/M02 A3019 RMK A01 T00211023  RH  073%=      5-min Rain = 0
KBR1 170839Z 02013KT 02/M02 A3019 RMK A01 T00211023  RH  073%=      5-min Rain = 0
KBR1 170840Z 02011KT 02/M02 A3019 RMK A01 T00211023  RH  073%=      5-min Rain = 0
KBR1 170841Z 02010KT 02/M02 A3019 RMK A01 T00201023  RH  073%=      5-min Rain = 0
KBR1 170842Z 02011KT 02/M02 A3019 RMK A01 T00201023  RH  073%=      5-min Rain = 0
KBR1 170843Z 01011KT 02/M02 A3019 RMK A01 T00201022  RH  074%=      5-min Rain = 0
KBR1 170844Z 01010KT 02/M02 A3019 RMK A01 T00201022  RH  074%=      5-min Rain = 0
KBR1 170845Z 02011KT 02/M02 A3019 RMK A01 T00201022  RH  074%=      5-min Rain = 0
KBR1 170846Z 02010KT 02/M02 A3019 RMK A01 T00201022  RH  074%=      5-min Rain = 0
KBR1 170847Z 02009KT 02/M02 A3019 RMK A01 T00201021  RH  074%=      5-min Rain = 0
KBR1 170848Z 02010KT 02/M02 A3019 RMK A01 T00201021  RH  074%=      5-min Rain = 0
KBR1 170849Z 01014KT 02/M02 A3019 RMK A01 T00201021  RH  074%=      5-min Rain = 0
KBR1 170850Z 02012KT 02/M02 A3019 RMK A01 T00201021  RH  074%=      5-min Rain = 0
KBR1 170851Z 01012KT 02/M02 A3019 RMK A01 T00211021  RH  074%=      5-min Rain = 0
KBR1 170852Z 02010KT 02/M02 A3019 RMK A01 T00211021  RH  074%=      5-min Rain = 0
KBR1 170853Z 01013KT 02/M02 A3019 RMK A01 T00211021  RH  074%=      5-min Rain = 0
KBR1 170854Z 01012KT 02/M02 A3019 RMK A01 T00211021  RH  074%=      5-min Rain = 0
KBR1 170855Z 01013KT 02/M02 A3019 RMK A01 T00211021  RH  073%=      5-min Rain = 0
KBR1 170856Z 01012KT 02/M02 A3019 RMK A01 T00211021  RH  074%=      5-min Rain = 0
KBR1 170857Z 02014KT 02/M02 A3019 RMK A01 T00221021  RH  074%=      5-min Rain = 0
KBR1 170858Z 02014KT 02/M02 A3019 RMK A01 T00221021  RH  073%=      5-min Rain = 0
KBR1 170859Z 01012KT 02/M02 A3019 RMK A01 T00221021  RH  073%=      5-min Rain = 0
KBR1 170900Z 02010KT 02/M02 A3019 RMK A01 T00211021  RH  074%=      5-min Rain = 0
KBR1 170901Z 01011KT 02/M02 A3019 RMK A01 T00211020  RH  074%=      5-min Rain = 0
KBR1 170902Z 02013KT 02/M02 A3019 RMK A01 T00211020  RH  074%=      5-min Rain = 0
KBR1 170903Z 02013KT 02/M02 A3019 RMK A01 T00221020  RH  074%=      5-min Rain = 0
KBR1 170904Z 02013KT 02/M02 A3018 RMK A01 T00211021  RH  074%=      5-min Rain = 0
KBR1 170905Z 02012KT 02/M02 A3018 RMK A01 T00211021  RH  074%=      5-min Rain = 0
KBR1 170906Z 02011KT 02/M02 A3018 RMK A01 T00211021  RH  074%=      5-min Rain = 0
KBR1 170907Z 02011KT 02/M02 A3018 RMK A01 T00211021  RH  074%=      5-min Rain = 0
KBR1 170908Z 02011KT 02/M02 A3018 RMK A01 T00211020  RH  074%=      5-min Rain = 0
KBR1 170909Z 02012KT 02/M02 A3018 RMK A01 T00201021  RH  074%=      5-min Rain = 0
KBR1 170910Z 02012KT 02/M02 A3019 RMK A01 T00201021  RH  074%=      5-min Rain = 0
KBR1 170911Z 02012KT 02/M02 A3019 RMK A01 T00211021  RH  074%=      5-min Rain = 0
KBR1 170912Z 02009KT 02/M02 A3019 RMK A01 T00211021  RH  074%=      5-min Rain = 0
KBR1 170913Z 02012KT 02/M02 A3019 RMK A01 T00201021  RH  075%=      5-min Rain = 0
KBR1 170914Z 01011KT 02/M02 A3019 RMK A01 T00191021  RH  074%=      5-min Rain = 0
KBR1 170915Z 02011KT 02/M02 A3019 RMK A01 T00201021  RH  074%=      5-min Rain = 0
KBR1 170916Z 02012KT 02/M02 A3019 RMK A01 T00201021  RH  075%=      5-min Rain = 0
KBR1 170917Z 02010KT 02/M02 A3019 RMK A01 T00201021  RH  074%=      5-min Rain = 0
KBR1 170918Z 02010KT 02/M02 A3019 RMK A01 T00201021  RH  075%=      5-min Rain = 0
KBR1 170919Z 02012KT 02/M02 A3019 RMK A01 T00191021  RH  075%=      5-min Rain = 0
KBR1 170920Z 02010KT 02/M02 A3019 RMK A01 T00191021  RH  075%=      5-min Rain = 0
KBR1 170921Z 02012KT 02/M02 A3019 RMK A01 T00191021  RH  075%=      5-min Rain = 0
KBR1 170922Z 02011KT 02/M02 A3019 RMK A01 T00191021  RH  075%=      5-min Rain = 0
KBR1 170923Z 02012KT 02/M02 A3019 RMK A01 T00191021  RH  075%=      5-min Rain = 0
KBR1 170924Z 02011KT 02/M02 A3019 RMK A01 T00191021  RH  075%=      5-min Rain = 0
KBR1 170925Z 02011KT 02/M02 A3019 RMK A01 T00191021  RH  075%=      5-min Rain = 0
KBR1 170926Z 02010KT 02/M02 A3019 RMK A01 T00191021  RH  075%=      5-min Rain = 0
KBR1 170927Z 02011KT 02/M02 A3019 RMK A01 T00181021  RH  075%=      5-min Rain = 0
KBR1 170928Z 02010KT 02/M02 A3019 RMK A01 T00181021  RH  075%=      5-min Rain = 0
KBR1 170929Z 02012KT 02/M02 A3019 RMK A01 T00181021  RH  075%=      5-min Rain = 0
KBR1 170930Z 02010KT 02/M02 A3019 RMK A01 T00181021  RH  075%=      5-min Rain = 0
KBR1 170931Z 02012KT 02/M02 A3019 RMK A01 T00181021  RH  075%=      5-min Rain = 0
KBR1 170932Z 02011KT 02/M02 A3019 RMK A01 T00181022  RH  075%=      5-min Rain = 0
KBR1 170933Z 02010KT 02/M02 A3019 RMK A01 T00181022  RH  075%=      5-min Rain = 0
KBR1 170934Z 01008KT 02/M02 A3019 RMK A01 T00181022  RH  075%=      5-min Rain = 0
KBR1 170935Z 02011KT 02/M02 A3019 RMK A01 T00181022  RH  075%=      5-min Rain = 0
KBR1 170936Z 01012KT 02/M02 A302 RMK A01 T00181022  RH  075%=      5-min Rain = 0
KBR1 170937Z 01011KT 02/M02 A302 RMK A01 T00181022  RH  074%=      5-min Rain = 0
KBR1 170938Z 02011KT 02/M02 A302 RMK A01 T00181022  RH  074%=      5-min Rain = 0
KBR1 170939Z 02013KT 02/M02 A302 RMK A01 T00181022  RH  075%=      5-min Rain = 0
KBR1 170940Z 02011KT 02/M02 A302 RMK A01 T00181022  RH  075%=      5-min Rain = 0
KBR1 170941Z 01011KT 02/M02 A302 RMK A01 T00181022  RH  075%=      5-min Rain = 0
KBR1 170942Z 02010KT 02/M02 A302 RMK A01 T00181022  RH  075%=      5-min Rain = 0
KBR1 170943Z 02010KT 02/M02 A302 RMK A01 T00191021  RH  075%=      5-min Rain = 0
KBR1 170944Z 02011KT 02/M02 A302 RMK A01 T00181022  RH  075%=      5-min Rain = 0
KBR1 170945Z 01011KT 02/M02 A302 RMK A01 T00181022  RH  075%=      5-min Rain = 0
KBR1 170946Z 01009KT 02/M02 A302 RMK A01 T00181022  RH  075%=      5-min Rain = 0
KBR1 170947Z 02010KT 02/M02 A302 RMK A01 T00181021  RH  075%=      5-min Rain = 0
KBR1 170948Z 02009KT 02/M02 A302 RMK A01 T00181022  RH  075%=      5-min Rain = 0
KBR1 170949Z 02010KT 02/M02 A302 RMK A01 T00181021  RH  075%=      5-min Rain = 0
KBR1 170950Z 01010KT 02/M02 A302 RMK A01 T00181021  RH  075%=      5-min Rain = 0
KBR1 170951Z 02009KT 02/M02 A302 RMK A01 T00181021  RH  075%=      5-min Rain = 0
KBR1 170952Z 02010KT 02/M02 A302 RMK A01 T00181021  RH  075%=      5-min Rain = 0
KBR1 170953Z 02010KT 02/M02 A302 RMK A01 T00181021  RH  075%=      5-min Rain = 0
KBR1 170954Z 02009KT 02/M02 A302 RMK A01 T00181021  RH  075%=      5-min Rain = 0
KBR1 170955Z 02008KT 02/M02 A302 RMK A01 T00181021  RH  076%=      5-min Rain = 0
KBR1 170956Z 02009KT 02/M02 A302 RMK A01 T00181020  RH  076%=      5-min Rain = 0
KBR1 170957Z 02009KT 02/M02 A302 RMK A01 T00181021  RH  076%=      5-min Rain = 0
KBR1 170958Z 02008KT 02/M02 A302 RMK A01 T00181021  RH  076%=      5-min Rain = 0
KBR1 170959Z 03010KT 02/M02 A302 RMK A01 T00171020  RH  076%=      5-min Rain = 0
KBR1 171000Z 02011KT 02/M02 A302 RMK A01 T00171021  RH  076%=      5-min Rain = 0
KBR1 171001Z 02011KT 02/M02 A302 RMK A01 T00171021  RH  076%=      5-min Rain = 0
KBR1 171002Z 02013KT 02/M02 A3019 RMK A01 T00171021  RH  076%=      5-min Rain = 0
KBR1 171003Z 02011KT 02/M02 A3019 RMK A01 T00171021  RH  076%=      5-min Rain = 0
KBR1 171004Z 02012KT 02/M02 A3019 RMK A01 T00171022  RH  076%=      5-min Rain = 0
KBR1 171005Z 02012KT 02/M02 A3019 RMK A01 T00161022  RH  075%=      5-min Rain = 0
KBR1 171006Z 03010KT 02/M02 A3019 RMK A01 T00161022  RH  075%=      5-min Rain = 0
KBR1 171007Z 02010KT 02/M02 A3019 RMK A01 T00161022  RH  076%=      5-min Rain = 0
KBR1 171008Z 02012KT 02/M02 A3019 RMK A01 T00161022  RH  076%=      5-min Rain = 0
KBR1 171009Z 02010KT 02/M02 A3019 RMK A01 T00161022  RH  076%=      5-min Rain = 0
KBR1 171010Z 02012KT 02/M02 A3019 RMK A01 T00161022  RH  076%=      5-min Rain = 0
KBR1 171011Z 02011KT 02/M02 A302 RMK A01 T00161023  RH  076%=      5-min Rain = 0
KBR1 171012Z 02011KT 02/M02 A302 RMK A01 T00161022  RH  076%=      5-min Rain = 0
KBR1 171013Z 02011KT 02/M02 A302 RMK A01 T00161022  RH  076%=      5-min Rain = 0
KBR1 171014Z 02009KT 02/M02 A302 RMK A01 T00161022  RH  076%=      5-min Rain = 0
KBR1 171015Z 02010KT 02/M02 A302 RMK A01 T00161022  RH  076%=      5-min Rain = 0
KBR1 171016Z 02012KT 02/M02 A302 RMK A01 T00161022  RH  076%=      5-min Rain = 0
KBR1 171017Z 02009KT 02/M02 A302 RMK A01 T00161023  RH  075%=      5-min Rain = 0
KBR1 171018Z 01010KT 02/M02 A302 RMK A01 T00171022  RH  075%=      5-min Rain = 0
KBR1 171019Z 02010KT 02/M02 A302 RMK A01 T00161023  RH  075%=      5-min Rain = 0
KBR1 171020Z 02009KT 02/M02 A302 RMK A01 T00161023  RH  075%=      5-min Rain = 0
KBR1 171021Z 02009KT 02/M02 A302 RMK A01 T00161023  RH  075%=      5-min Rain = 0
KBR1 171022Z 02007KT 02/M02 A302 RMK A01 T00171023  RH  075%=      5-min Rain = 0
KBR1 171023Z 01006KT 02/M02 A302 RMK A01 T00171022  RH  076%=      5-min Rain = 0
KBR1 171024Z 02006KT 02/M02 A302 RMK A01 T00161022  RH  076%=      5-min Rain = 0
KBR1 171025Z 02006KT 02/M02 A302 RMK A01 T00161022  RH  076%=      5-min Rain = 0
KBR1 171026Z 02007KT 02/M02 A3021 RMK A01 T00161022  RH  076%=      5-min Rain = 0
KBR1 171027Z 01007KT 02/M02 A3021 RMK A01 T00171022  RH  076%=      5-min Rain = 0
KBR1 171028Z 02007KT 02/M02 A3021 RMK A01 T00161023  RH  075%=      5-min Rain = 0
KBR1 171029Z 02008KT 02/M02 A3021 RMK A01 T00161023  RH  075%=      5-min Rain = 0
KBR1 171030Z 02008KT 02/M02 A3021 RMK A01 T00161022  RH  075%=      5-min Rain = 0
KBR1 171031Z 02010KT 02/M02 A302 RMK A01 T00171022  RH  075%=      5-min Rain = 0
KBR1 171032Z 02010KT 02/M02 A302 RMK A01 T00161023  RH  075%=      5-min Rain = 0
KBR1 171033Z 01009KT 02/M02 A302 RMK A01 T00161024  RH  075%=      5-min Rain = 0
KBR1 171034Z 02010KT 02/M02 A3021 RMK A01 T00161024  RH  075%=      5-min Rain = 0
KBR1 171035Z 01009KT 02/M02 A3021 RMK A01 T00161024  RH  075%=      5-min Rain = 0
KBR1 171036Z 02009KT 02/M02 A3021 RMK A01 T00161024  RH  075%=      5-min Rain = 0
KBR1 171037Z 02012KT 02/M02 A302 RMK A01 T00161024  RH  075%=      5-min Rain = 0
KBR1 171038Z 02011KT 02/M03 A302 RMK A01 T00161025  RH  074%=      5-min Rain = 0
KBR1 171039Z 01015KT 02/M03 A302 RMK A01 T00161025  RH  074%=      5-min Rain = 0
KBR1 171040Z 01016KT 02/M03 A302 RMK A01 T00161026  RH  074%=      5-min Rain = 0
KBR1 171041Z 01015KT 02/M03 A302 RMK A01 T00151027  RH  074%=      5-min Rain = 0
KBR1 171042Z 02015KT 02/M03 A302 RMK A01 T00161027  RH  074%=      5-min Rain = 0
KBR1 171043Z 01014KT 02/M03 A302 RMK A01 T00151027  RH  074%=      5-min Rain = 0
KBR1 171044Z 01013KT 02/M03 A302 RMK A01 T00151026  RH  074%=      5-min Rain = 0
KBR1 171045Z 01013KT 02/M03 A302 RMK A01 T00151026  RH  074%=      5-min Rain = 0
KBR1 171046Z 02011KT 02/M03 A302 RMK A01 T00151026  RH  074%=      5-min Rain = 0
KBR1 171047Z 02012KT 02/M03 A302 RMK A01 T00151025  RH  074%=      5-min Rain = 0
KBR1 171048Z 02013KT 02/M03 A302 RMK A01 T00151025  RH  074%=      5-min Rain = 0
KBR1 171049Z 02017KT 02/M03 A302 RMK A01 T00151026  RH  074%=      5-min Rain = 0
KBR1 171050Z 01016KT 02/M03 A302 RMK A01 T00151026  RH  074%=      5-min Rain = 0
KBR1 171051Z 02015KT 01/M03 A302 RMK A01 T00141027  RH  074%=      5-min Rain = 0
KBR1 171052Z 02014KT 01/M03 A302 RMK A01 T00141027  RH  074%=      5-min Rain = 0
KBR1 171053Z 02014KT 01/M03 A302 RMK A01 T00141026  RH  074%=      5-min Rain = 0
KBR1 171054Z 02013KT 01/M03 A302 RMK A01 T00141027  RH  074%=      5-min Rain = 0
KBR1 171055Z 02014KT 01/M03 A302 RMK A01 T00141027  RH  074%=      5-min Rain = 0
KBR1 171056Z 02014KT 01/M03 A302 RMK A01 T00141027  RH  074%=      5-min Rain = 0
KBR1 171057Z 02013KT 01/M03 A302 RMK A01 T00131027  RH  074%=      5-min Rain = 0
KBR1 171058Z 01013KT 01/M03 A302 RMK A01 T00141027  RH  074%=      5-min Rain = 0
KBR1 171059Z 01013KT 01/M03 A3021 RMK A01 T00131028  RH  074%=      5-min Rain = 0
KBR1 171100Z 02011KT 01/M03 A3021 RMK A01 T00131028  RH  074%=      5-min Rain = 0
KBR1 171101Z 02010KT 01/M03 A3021 RMK A01 T00131028  RH  074%=      5-min Rain = 0
KBR1 171102Z 03010KT 01/M03 A3021 RMK A01 T00131027  RH  075%=      5-min Rain = 0
KBR1 171103Z 03011KT 01/M03 A3021 RMK A01 T00131027  RH  074%=      5-min Rain = 0
KBR1 171104Z 03009KT 01/M03 A3021 RMK A01 T00131028  RH  074%=      5-min Rain = 0
KBR1 171105Z 03009KT 01/M03 A3021 RMK A01 T00131027  RH  075%=      5-min Rain = 0
KBR1 171106Z 03010KT 01/M03 A3021 RMK A01 T00131028  RH  075%=      5-min Rain = 0
KBR1 171107Z 03012KT 01/M03 A3021 RMK A01 T00121028  RH  074%=      5-min Rain = 0
KBR1 171108Z 03011KT 01/M03 A3021 RMK A01 T00121029  RH  074%=      5-min Rain = 0
KBR1 171109Z 03009KT 01/M03 A3021 RMK A01 T00121028  RH  075%=      5-min Rain = 0
KBR1 171110Z 03010KT 01/M03 A3021 RMK A01 T00121028  RH  075%=      5-min Rain = 0
KBR1 171111Z 03009KT 01/M03 A3021 RMK A01 T00121028  RH  074%=      5-min Rain = 0
KBR1 171112Z 02009KT 01/M03 A3021 RMK A01 T00121028  RH  075%=      5-min Rain = 0
KBR1 171113Z 02009KT 01/M03 A3021 RMK A01 T00121028  RH  075%=      5-min Rain = 0
KBR1 171114Z 02009KT 01/M03 A3022 RMK A01 T00121028  RH  075%=      5-min Rain = 0
KBR1 171115Z 02008KT 01/M03 A3022 RMK A01 T00121029  RH  075%=      5-min Rain = 0
KBR1 171116Z 02008KT 01/M03 A3022 RMK A01 T00121028  RH  075%=      5-min Rain = 0
KBR1 171117Z 03008KT 01/M03 A3022 RMK A01 T00111029  RH  075%=      5-min Rain = 0
KBR1 171118Z 02008KT 01/M03 A3022 RMK A01 T00111028  RH  075%=      5-min Rain = 0
KBR1 171119Z 02008KT 01/M03 A3022 RMK A01 T00111029  RH  075%=      5-min Rain = 0
KBR1 171120Z 02008KT 01/M03 A3022 RMK A01 T00111029  RH  075%=      5-min Rain = 0
KBR1 171121Z 01010KT 01/M03 A3022 RMK A01 T00111029  RH  075%=      5-min Rain = 0
KBR1 171122Z 02010KT 01/M03 A3022 RMK A01 T00121029  RH  074%=      5-min Rain = 0
KBR1 171123Z 02010KT 01/M03 A3022 RMK A01 T00111030  RH  074%=      5-min Rain = 0
KBR1 171124Z 01009KT 01/M03 A3022 RMK A01 T00111029  RH  074%=      5-min Rain = 0
KBR1 171125Z 01011KT 01/M03 A3022 RMK A01 T00111029  RH  074%=      5-min Rain = 0
KBR1 171126Z 01010KT 01/M03 A3022 RMK A01 T00111030  RH  074%=      5-min Rain = 0
KBR1 171127Z 02009KT 01/M03 A3022 RMK A01 T00111029  RH  074%=      5-min Rain = 0
KBR1 171128Z 02009KT 01/M03 A3022 RMK A01 T00111029  RH  074%=      5-min Rain = 0
KBR1 171129Z 01010KT 01/M03 A3022 RMK A01 T00111029  RH  074%=      5-min Rain = 0
KBR1 171130Z 02010KT 01/M03 A3022 RMK A01 T00111029  RH  074%=      5-min Rain = 0
KBR1 171131Z 01010KT 01/M03 A3022 RMK A01 T00111029  RH  074%=      5-min Rain = 0
KBR1 171132Z 01010KT 01/M03 A3022 RMK A01 T00121029  RH  074%=      5-min Rain = 0
KBR1 171133Z 01010KT 01/M03 A3022 RMK A01 T00121029  RH  074%=      5-min Rain = 0
KBR1 171134Z 02010KT 01/M03 A3022 RMK A01 T00111029  RH  074%=      5-min Rain = 0
KBR1 171135Z 01011KT 01/M03 A3022 RMK A01 T00111030  RH  074%=      5-min Rain = 0
KBR1 171136Z 02010KT 01/M03 A3022 RMK A01 T00111029  RH  074%=      5-min Rain = 0
KBR1 171137Z 01009KT 01/M03 A3022 RMK A01 T00121029  RH  074%=      5-min Rain = 0
KBR1 171138Z 01008KT 01/M03 A3022 RMK A01 T00111029  RH  075%=      5-min Rain = 0
KBR1 171139Z 01007KT 01/M03 A3022 RMK A01 T00111028  RH  075%=      5-min Rain = 0
KBR1 171140Z 01009KT 01/M03 A3022 RMK A01 T00121027  RH  075%=      5-min Rain = 0
KBR1 171141Z 01009KT 01/M03 A3022 RMK A01 T00121028  RH  075%=      5-min Rain = 0
KBR1 171142Z 01010KT 01/M03 A3022 RMK A01 T00121028  RH  074%=      5-min Rain = 0
KBR1 171143Z 00011KT 01/M03 A3022 RMK A01 T00121029  RH  074%=      5-min Rain = 0
KBR1 171144Z 01012KT 01/M03 A3022 RMK A01 T00121029  RH  074%=      5-min Rain = 0
KBR1 171145Z 01013KT 01/M03 A3022 RMK A01 T00121029  RH  074%=      5-min Rain = 0
KBR1 171146Z 01011KT 01/M03 A3022 RMK A01 T00121030  RH  074%=      5-min Rain = 0
KBR1 171147Z 01009KT 01/M03 A3022 RMK A01 T00121029  RH  074%=      5-min Rain = 0
KBR1 171148Z 01009KT 01/M03 A3022 RMK A01 T00121028  RH  075%=      5-min Rain = 0
KBR1 171149Z 00010KT 01/M03 A3022 RMK A01 T00121028  RH  074%=      5-min Rain = 0
KBR1 171150Z 01010KT 01/M03 A3022 RMK A01 T00121029  RH  074%=      5-min Rain = 0
KBR1 171151Z 01009KT 01/M03 A3022 RMK A01 T00121029  RH  074%=      5-min Rain = 0
KBR1 171152Z 00010KT 01/M03 A3022 RMK A01 T00121028  RH  074%=      5-min Rain = 0
KBR1 171153Z 00010KT 01/M03 A3022 RMK A01 T00121028  RH  074%=      5-min Rain = 0
KBR1 171154Z 01009KT 01/M03 A3022 RMK A01 T00121028  RH  074%=      5-min Rain = 0
KBR1 171155Z 01008KT 01/M03 A3022 RMK A01 T00121027  RH  075%=      5-min Rain = 0
KBR1 171156Z 01010KT 01/M03 A3022 RMK A01 T00121027  RH  075%=      5-min Rain = 0
KBR1 171157Z 01011KT 01/M03 A3022 RMK A01 T00121028  RH  074%=      5-min Rain = 0
KBR1 171158Z 02009KT 01/M03 A3022 RMK A01 T00121029  RH  074%=      5-min Rain = 0
KBR1 171159Z 01010KT 01/M03 A3022 RMK A01 T00121028  RH  074%=      5-min Rain = 0
KBR1 171200Z 01008KT 01/M03 A3022 RMK A01 T00121028  RH  075%=      5-min Rain = 0
KBR1 171201Z 01011KT 01/M03 A3022 RMK A01 T00121028  RH  075%=      5-min Rain = 0
KBR1 171202Z 00010KT 01/M03 A3022 RMK A01 T00121028  RH  074%=      5-min Rain = 0
KBR1 171203Z 00010KT 01/M03 A3022 RMK A01 T00121028  RH  074%=      5-min Rain = 0
KBR1 171204Z 00008KT 01/M03 A3022 RMK A01 T00121029  RH  074%=      5-min Rain = 0
KBR1 171205Z 01009KT 01/M03 A3022 RMK A01 T00121028  RH  074%=      5-min Rain = 0
KBR1 171206Z 01009KT 01/M03 A3022 RMK A01 T00131028  RH  074%=      5-min Rain = 0
KBR1 171207Z 01009KT 01/M03 A3022 RMK A01 T00121028  RH  074%=      5-min Rain = 0
KBR1 171208Z 01009KT 01/M03 A3022 RMK A01 T00121029  RH  074%=      5-min Rain = 0
KBR1 171209Z 01010KT 01/M03 A3022 RMK A01 T00121029  RH  074%=      5-min Rain = 0
KBR1 171210Z 01009KT 01/M03 A3022 RMK A01 T00121029  RH  074%=      5-min Rain = 0
KBR1 171211Z 01008KT 01/M03 A3022 RMK A01 T00121029  RH  074%=      5-min Rain = 0
KBR1 171212Z 01009KT 01/M03 A3022 RMK A01 T00121028  RH  074%=      5-min Rain = 0
KBR1 171213Z 01008KT 01/M03 A3023 RMK A01 T00121028  RH  074%=      5-min Rain = 0
KBR1 171214Z 01006KT 01/M03 A3023 RMK A01 T00121028  RH  075%=      5-min Rain = 0
KBR1 171215Z 01008KT 01/M03 A3023 RMK A01 T00121028  RH  075%=      5-min Rain = 0
KBR1 171216Z 02008KT 01/M03 A3023 RMK A01 T00121028  RH  074%=      5-min Rain = 0
KBR1 171217Z 01008KT 01/M03 A3023 RMK A01 T00121028  RH  075%=      5-min Rain = 0
KBR1 171218Z 01008KT 01/M03 A3023 RMK A01 T00121028  RH  075%=      5-min Rain = 0
KBR1 171219Z 01009KT 01/M03 A3022 RMK A01 T00121028  RH  075%=      5-min Rain = 0
KBR1 171220Z 01009KT 01/M03 A3022 RMK A01 T00121028  RH  074%=      5-min Rain = 0
KBR1 171221Z 00010KT 01/M03 A3023 RMK A01 T00121029  RH  074%=      5-min Rain = 0
KBR1 171222Z 00010KT 01/M03 A3023 RMK A01 T00121029  RH  074%=      5-min Rain = 0
KBR1 171223Z 01010KT 01/M03 A3023 RMK A01 T00121029  RH  074%=      5-min Rain = 0
KBR1 171224Z 01009KT 01/M03 A3023 RMK A01 T00121029  RH  074%=      5-min Rain = 0
KBR1 171225Z 01010KT 01/M03 A3023 RMK A01 T00131029  RH  074%=      5-min Rain = 0
KBR1 171226Z 01009KT 01/M03 A3023 RMK A01 T00131028  RH  074%=      5-min Rain = 0
KBR1 171227Z 01008KT 01/M03 A3023 RMK A01 T00131028  RH  074%=      5-min Rain = 0
KBR1 171228Z 01007KT 01/M03 A3023 RMK A01 T00131028  RH  074%=      5-min Rain = 0
KBR1 171229Z 01007KT 01/M03 A3023 RMK A01 T00131027  RH  075%=      5-min Rain = 0
KBR1 171230Z 01007KT 01/M03 A3023 RMK A01 T00131027  RH  075%=      5-min Rain = 0
KBR1 171231Z 01008KT 01/M03 A3023 RMK A01 T00131026  RH  075%=      5-min Rain = 0
KBR1 171232Z 01008KT 01/M03 A3022 RMK A01 T00131027  RH  075%=      5-min Rain = 0
KBR1 171233Z 01009KT 01/M03 A3022 RMK A01 T00131027  RH  074%=      5-min Rain = 0
KBR1 171234Z 01010KT 01/M03 A3022 RMK A01 T00131028  RH  074%=      5-min Rain = 0
KBR1 171235Z 02010KT 01/M03 A3022 RMK A01 T00131028  RH  074%=      5-min Rain = 0
KBR1 171236Z 01010KT 01/M03 A3022 RMK A01 T00131028  RH  074%=      5-min Rain = 0
KBR1 171237Z 01010KT 01/M03 A3022 RMK A01 T00131029  RH  074%=      5-min Rain = 0
KBR1 171238Z 01009KT 01/M03 A3022 RMK A01 T00131029  RH  074%=      5-min Rain = 0
KBR1 171239Z 02010KT 01/M03 A3022 RMK A01 T00131029  RH  074%=      5-min Rain = 0
KBR1 171240Z 01009KT 01/M03 A3022 RMK A01 T00131029  RH  074%=      5-min Rain = 0
KBR1 171241Z 01010KT 01/M03 A3022 RMK A01 T00131029  RH  074%=      5-min Rain = 0
KBR1 171242Z 01009KT 01/M03 A3022 RMK A01 T00131028  RH  074%=      5-min Rain = 0
KBR1 171243Z 01010KT 01/M03 A3022 RMK A01 T00141028  RH  074%=      5-min Rain = 0
KBR1 171244Z 02010KT 01/M03 A3022 RMK A01 T00141028  RH  074%=      5-min Rain = 0
KBR1 171245Z 01009KT 01/M03 A3022 RMK A01 T00141028  RH  074%=      5-min Rain = 0
KBR1 171246Z 01008KT 01/M03 A3022 RMK A01 T00141027  RH  074%=      5-min Rain = 0
KBR1 171247Z 01009KT 01/M03 A3022 RMK A01 T00141027  RH  074%=      5-min Rain = 0
KBR1 171248Z 01009KT 01/M03 A3023 RMK A01 T00141028  RH  074%=      5-min Rain = 0
KBR1 171249Z 01009KT 01/M03 A3023 RMK A01 T00141028  RH  073%=      5-min Rain = 0
KBR1 171250Z 01010KT 01/M03 A3023 RMK A01 T00141028  RH  073%=      5-min Rain = 0
KBR1 171251Z 01011KT 01/M03 A3023 RMK A01 T00141028  RH  073%=      5-min Rain = 0
KBR1 171252Z 01010KT 01/M03 A3023 RMK A01 T00141029  RH  073%=      5-min Rain = 0
KBR1 171253Z 01010KT 01/M03 A3023 RMK A01 T00141029  RH  073%=      5-min Rain = 0
KBR1 171254Z 01009KT 01/M03 A3023 RMK A01 T00141028  RH  073%=      5-min Rain = 0
KBR1 171255Z 01008KT 01/M03 A3023 RMK A01 T00141028  RH  073%=      5-min Rain = 0
KBR1 171256Z 01009KT 01/M03 A3023 RMK A01 T00141028  RH  074%=      5-min Rain = 0
KBR1 171257Z 01011KT 01/M03 A3023 RMK A01 T00141028  RH  074%=      5-min Rain = 0
KBR1 171258Z 01009KT 02/M03 A3023 RMK A01 T00151028  RH  073%=      5-min Rain = 0
KBR1 171259Z 01011KT 02/M03 A3023 RMK A01 T00151028  RH  073%=      5-min Rain = 0
KBR1 171300Z 01010KT 01/M03 A3023 RMK A01 T00141028  RH  073%=      5-min Rain = 0
KBR1 171301Z 01009KT 01/M03 A3023 RMK A01 T00141028  RH  073%=      5-min Rain = 0
KBR1 171302Z 00010KT 02/M03 A3023 RMK A01 T00151028  RH  073%=      5-min Rain = 0
KBR1 171303Z 01011KT 02/M03 A3023 RMK A01 T00151028  RH  073%=      5-min Rain = 0
KBR1 171304Z 01012KT 02/M03 A3023 RMK A01 T00151028  RH  073%=      5-min Rain = 0
KBR1 171305Z 01011KT 02/M03 A3023 RMK A01 T00151029  RH  073%=      5-min Rain = 0
KBR1 171306Z 01010KT 02/M03 A3023 RMK A01 T00151029  RH  073%=      5-min Rain = 0
KBR1 171307Z 01009KT 02/M03 A3023 RMK A01 T00151028  RH  073%=      5-min Rain = 0
KBR1 171308Z 01012KT 02/M03 A3023 RMK A01 T00161028  RH  073%=      5-min Rain = 0
KBR1 171309Z 01012KT 02/M03 A3023 RMK A01 T00161029  RH  072%=      5-min Rain = 0
KBR1 171310Z 01009KT 02/M03 A3022 RMK A01 T00161029  RH  072%=      5-min Rain = 0
KBR1 171311Z 02010KT 02/M03 A3023 RMK A01 T00161028  RH  073%=      5-min Rain = 0
KBR1 171312Z 01011KT 02/M03 A3022 RMK A01 T00161028  RH  073%=      5-min Rain = 0
KBR1 171313Z 01011KT 02/M03 A3023 RMK A01 T00161028  RH  072%=      5-min Rain = 0
KBR1 171314Z 01012KT 02/M03 A3023 RMK A01 T00161028  RH  072%=      5-min Rain = 0
KBR1 171315Z 01013KT 02/M03 A3023 RMK A01 T00161029  RH  072%=      5-min Rain = 0
KBR1 171316Z 02012KT 02/M03 A3023 RMK A01 T00161030  RH  071%=      5-min Rain = 0
KBR1 171317Z 01012KT 02/M03 A3023 RMK A01 T00161030  RH  072%=      5-min Rain = 0
KBR1 171318Z 01011KT 02/M03 A3023 RMK A01 T00171029  RH  072%=      5-min Rain = 0
KBR1 171319Z 02011KT 02/M03 A3023 RMK A01 T00171028  RH  072%=      5-min Rain = 0
KBR1 171320Z 01012KT 02/M03 A3023 RMK A01 T00161029  RH  072%=      5-min Rain = 0
KBR1 171321Z 02011KT 02/M03 A3023 RMK A01 T00171029  RH  072%=      5-min Rain = 0
KBR1 171322Z 02009KT 02/M03 A3023 RMK A01 T00171029  RH  072%=      5-min Rain = 0
KBR1 171323Z 01009KT 02/M03 A3023 RMK A01 T00171028  RH  072%=      5-min Rain = 0
KBR1 171324Z 01011KT 02/M03 A3023 RMK A01 T00171028  RH  072%=      5-min Rain = 0
KBR1 171325Z 01012KT 02/M03 A3023 RMK A01 T00171029  RH  071%=      5-min Rain = 0
KBR1 171326Z 02012KT 02/M03 A3023 RMK A01 T00181029  RH  071%=      5-min Rain = 0
KBR1 171327Z 02011KT 02/M03 A3023 RMK A01 T00181029  RH  071%=      5-min Rain = 0
KBR1 171328Z 02012KT 02/M03 A3023 RMK A01 T00181029  RH  071%=      5-min Rain = 0
KBR1 171329Z 02011KT 02/M03 A3023 RMK A01 T00181030  RH  071%=      5-min Rain = 0
KBR1 171330Z 02012KT 02/M03 A3023 RMK A01 T00181029  RH  071%=      5-min Rain = 0
KBR1 171331Z 02012KT 02/M03 A3023 RMK A01 T00181029  RH  071%=      5-min Rain = 0
KBR1 171332Z 02012KT 02/M03 A3023 RMK A01 T00181029  RH  071%=      5-min Rain = 0
KBR1 171333Z 02012KT 02/M03 A3023 RMK A01 T00191029  RH  071%=      5-min Rain = 0
KBR1 171334Z 02015KT 02/M03 A3023 RMK A01 T00191030  RH  070%=      5-min Rain = 0
KBR1 171335Z 01016KT 02/M03 A3023 RMK A01 T00181031  RH  070%=      5-min Rain = 0
KBR1 171336Z 02015KT 02/M03 A3023 RMK A01 T00181031  RH  070%=      5-min Rain = 0
KBR1 171337Z 02016KT 02/M03 A3023 RMK A01 T00181031  RH  070%=      5-min Rain = 0
KBR1 171338Z 00013KT 02/M03 A3023 RMK A01 T00181031  RH  070%=      5-min Rain = 0
KBR1 171339Z 01014KT 02/M03 A3023 RMK A01 T00191030  RH  070%=      5-min Rain = 0
KBR1 171340Z 01015KT 02/M03 A3023 RMK A01 T00191030  RH  070%=      5-min Rain = 0
KBR1 171341Z 01016KT 02/M03 A3023 RMK A01 T00191031  RH  070%=      5-min Rain = 0
KBR1 171342Z 02015KT 02/M03 A3023 RMK A01 T00191031  RH  070%=      5-min Rain = 0
KBR1 171343Z 01014KT 02/M03 A3023 RMK A01 T00191030  RH  070%=      5-min Rain = 0
KBR1 171344Z 01015KT 02/M03 A3023 RMK A01 T00191030  RH  070%=      5-min Rain = 0
KBR1 171345Z 02015KT 02/M03 A3023 RMK A01 T00191031  RH  069%=      5-min Rain = 0
KBR1 171346Z 01015KT 02/M03 A3023 RMK A01 T00191031  RH  070%=      5-min Rain = 0
KBR1 171347Z 01016KT 02/M03 A3023 RMK A01 T00191031  RH  069%=      5-min Rain = 0
KBR1 171348Z 01014KT 02/M03 A3023 RMK A01 T00191031  RH  069%=      5-min Rain = 0
KBR1 171349Z 01013KT 02/M03 A3023 RMK A01 T00191030  RH  070%=      5-min Rain = 0
KBR1 171350Z 01015KT 02/M03 A3023 RMK A01 T00201030  RH  069%=      5-min Rain = 0
KBR1 171351Z 02012KT 02/M03 A3023 RMK A01 T00201031  RH  069%=      5-min Rain = 0
KBR1 171352Z 02011KT 02/M03 A3023 RMK A01 T00191030  RH  069%=      5-min Rain = 0
KBR1 171353Z 02010KT 02/M03 A3023 RMK A01 T00201030  RH  070%=      5-min Rain = 0
KBR1 171354Z 02012KT 02/M03 A3023 RMK A01 T00201030  RH  069%=      5-min Rain = 0
KBR1 171355Z 02012KT 02/M03 A3023 RMK A01 T00211030  RH  069%=      5-min Rain = 0
KBR1 171356Z 01011KT 02/M03 A3023 RMK A01 T00201030  RH  069%=      5-min Rain = 0
KBR1 171357Z 01012KT 02/M03 A3023 RMK A01 T00211029  RH  070%=      5-min Rain = 0
KBR1 171358Z 02011KT 02/M03 A3024 RMK A01 T00211030  RH  069%=      5-min Rain = 0
KBR1 171359Z 02010KT 02/M03 A3023 RMK A01 T00211029  RH  069%=      5-min Rain = 0
KBR1 171400Z 02013KT 02/M03 A3024 RMK A01 T00211029  RH  069%=      5-min Rain = 0
KBR1 171401Z 03014KT 02/M03 A3024 RMK A01 T00211030  RH  069%=      5-min Rain = 0
KBR1 171402Z 03015KT 02/M03 A3024 RMK A01 T00211031  RH  069%=      5-min Rain = 0
KBR1 171403Z 02014KT 02/M03 A3024 RMK A01 T00211031  RH  069%=      5-min Rain = 0
KBR1 171404Z 02013KT 02/M03 A3024 RMK A01 T00201031  RH  069%=      5-min Rain = 0
KBR1 171405Z 03013KT 02/M03 A3024 RMK A01 T00201031  RH  069%=      5-min Rain = 0
KBR1 171406Z 02015KT 02/M03 A3024 RMK A01 T00201030  RH  069%=      5-min Rain = 0
KBR1 171407Z 03013KT 02/M03 A3024 RMK A01 T00201031  RH  069%=      5-min Rain = 0
KBR1 171408Z 02013KT 02/M03 A3024 RMK A01 T00211030  RH  069%=      5-min Rain = 0
KBR1 171409Z 02014KT 02/M03 A3024 RMK A01 T00201031  RH  069%=      5-min Rain = 0
KBR1 171410Z 02011KT 02/M03 A3024 RMK A01 T00201031  RH  069%=      5-min Rain = 0
KBR1 171411Z 02012KT 02/M03 A3024 RMK A01 T00201030  RH  069%=      5-min Rain = 0
KBR1 171412Z 02013KT 02/M03 A3024 RMK A01 T00211030  RH  069%=      5-min Rain = 0
KBR1 171413Z 03013KT 02/M03 A3024 RMK A01 T00211030  RH  069%=      5-min Rain = 0
KBR1 171414Z 02012KT 02/M03 A3024 RMK A01 T00211030  RH  069%=      5-min Rain = 0
KBR1 171415Z 02012KT 02/M03 A3024 RMK A01 T00211030  RH  069%=      5-min Rain = 0
KBR1 171416Z 02010KT 02/M03 A3024 RMK A01 T00211030  RH  069%=      5-min Rain = 0
KBR1 171417Z 02009KT 02/M03 A3024 RMK A01 T00221028  RH  070%=      5-min Rain = 0
KBR1 171418Z 02010KT 02/M03 A3025 RMK A01 T00221028  RH  069%=      5-min Rain = 0
KBR1 171419Z 02013KT 02/M03 A3025 RMK A01 T00221029  RH  069%=      5-min Rain = 0
KBR1 171420Z 01013KT 02/M03 A3025 RMK A01 T00221029  RH  069%=      5-min Rain = 0
KBR1 171421Z 02009KT 02/M03 A3025 RMK A01 T00221029  RH  069%=      5-min Rain = 0
KBR1 171422Z 03011KT 02/M03 A3025 RMK A01 T00221028  RH  069%=      5-min Rain = 0
KBR1 171423Z 03013KT 02/M03 A3025 RMK A01 T00221029  RH  069%=      5-min Rain = 0
KBR1 171424Z 02012KT 02/M03 A3025 RMK A01 T00221029  RH  069%=      5-min Rain = 0
KBR1 171425Z 02011KT 02/M03 A3025 RMK A01 T00221029  RH  069%=      5-min Rain = 0
KBR1 171426Z 03010KT 02/M03 A3025 RMK A01 T00221028  RH  069%=      5-min Rain = 0
KBR1 171427Z 02010KT 02/M03 A3025 RMK A01 T00231028  RH  069%=      5-min Rain = 0
KBR1 171428Z 02011KT 02/M03 A3025 RMK A01 T00231028  RH  069%=      5-min Rain = 0
KBR1 171429Z 02012KT 02/M03 A3025 RMK A01 T00231028  RH  069%=      5-min Rain = 0
KBR1 171430Z 02011KT 02/M03 A3025 RMK A01 T00231028  RH  069%=      5-min Rain = 0
KBR1 171431Z 02010KT 02/M03 A3025 RMK A01 T00231028  RH  069%=      5-min Rain = 0
KBR1 171432Z 02009KT 02/M03 A3025 RMK A01 T00231028  RH  069%=      5-min Rain = 0
KBR1 171433Z 02008KT 02/M03 A3025 RMK A01 T00241027  RH  069%=      5-min Rain = 0
KBR1 171434Z 01011KT 03/M03 A3025 RMK A01 T00251026  RH  069%=      5-min Rain = 0
KBR1 171435Z 02011KT 03/M03 A3025 RMK A01 T00261027  RH  068%=      5-min Rain = 0
KBR1 171436Z 01009KT 03/M03 A3025 RMK A01 T00251027  RH  068%=      5-min Rain = 0
KBR1 171437Z 03010KT 03/M03 A3026 RMK A01 T00251027  RH  068%=      5-min Rain = 0
KBR1 171438Z 04012KT 03/M03 A3026 RMK A01 T00251028  RH  068%=      5-min Rain = 0
KBR1 171439Z 03012KT 03/M03 A3026 RMK A01 T00251028  RH  068%=      5-min Rain = 0
KBR1 171440Z 02012KT 03/M03 A3026 RMK A01 T00261029  RH  067%=      5-min Rain = 0
KBR1 171441Z 03012KT 03/M03 A3026 RMK A01 T00261028  RH  068%=      5-min Rain = 0
KBR1 171442Z 03012KT 03/M03 A3026 RMK A01 T00271028  RH  067%=      5-min Rain = 0
KBR1 171443Z 04013KT 03/M03 A3026 RMK A01 T00261029  RH  067%=      5-min Rain = 0
KBR1 171444Z 03012KT 03/M03 A3026 RMK A01 T00261029  RH  067%=      5-min Rain = 0
KBR1 171445Z 02013KT 03/M03 A3026 RMK A01 T00261029  RH  067%=      5-min Rain = 0
KBR1 171446Z 02011KT 03/M03 A3026 RMK A01 T00271029  RH  067%=      5-min Rain = 0
KBR1 171447Z 02011KT 03/M03 A3026 RMK A01 T00261029  RH  067%=      5-min Rain = 0
KBR1 171448Z 02013KT 03/M03 A3026 RMK A01 T00271029  RH  067%=      5-min Rain = 0
KBR1 171449Z 03014KT 03/M03 A3026 RMK A01 T00271030  RH  066%=      5-min Rain = 0
KBR1 171450Z 02013KT 03/M03 A3026 RMK A01 T00271030  RH  066%=      5-min Rain = 0
KBR1 171451Z 03012KT 03/M03 A3026 RMK A01 T00281029  RH  066%=      5-min Rain = 0
KBR1 171452Z 03011KT 03/M03 A3026 RMK A01 T00281030  RH  066%=      5-min Rain = 0
KBR1 171453Z 02013KT 03/M03 A3026 RMK A01 T00281029  RH  066%=      5-min Rain = 0
KBR1 171454Z 02012KT 03/M03 A3026 RMK A01 T00281030  RH  066%=      5-min Rain = 0
KBR1 171455Z 02013KT 03/M03 A3026 RMK A01 T00281030  RH  066%=      5-min Rain = 0
KBR1 171456Z 02012KT 03/M03 A3026 RMK A01 T00281030  RH  066%=      5-min Rain = 0
KBR1 171457Z 03008KT 03/M03 A3026 RMK A01 T00281029  RH  066%=      5-min Rain = 0
KBR1 171458Z 02010KT 03/M03 A3026 RMK A01 T00291028  RH  066%=      5-min Rain = 0
KBR1 171459Z 01013KT 03/M03 A3026 RMK A01 T00301029  RH  066%=      5-min Rain = 0
KBR1 171500Z 01014KT 03/M03 A3026 RMK A01 T00301029  RH  065%=      5-min Rain = 0
KBR1 171501Z 02014KT 03/M03 A3026 RMK A01 T00301030  RH  065%=      5-min Rain = 0
KBR1 171502Z 02012KT 03/M03 A3026 RMK A01 T00291030  RH  065%=      5-min Rain = 0
KBR1 171503Z 02012KT 03/M03 A3026 RMK A01 T00301029  RH  065%=      5-min Rain = 0
KBR1 171504Z 03013KT 03/M03 A3026 RMK A01 T00301029  RH  065%=      5-min Rain = 0
KBR1 171505Z 03012KT 03/M03 A3026 RMK A01 T00301030  RH  065%=      5-min Rain = 0
KBR1 171506Z 02012KT 03/M03 A3026 RMK A01 T00301030  RH  064%=      5-min Rain = 0
KBR1 171507Z 02012KT 03/M03 A3026 RMK A01 T00301030  RH  064%=      5-min Rain = 0
KBR1 171508Z 02014KT 03/M03 A3026 RMK A01 T00311030  RH  065%=      5-min Rain = 0
KBR1 171509Z 01015KT 03/M03 A3026 RMK A01 T00301031  RH  064%=      5-min Rain = 0
KBR1 171510Z 01014KT 03/M03 A3026 RMK A01 T00311031  RH  064%=      5-min Rain = 0
KBR1 171511Z 02012KT 03/M03 A3026 RMK A01 T00311030  RH  064%=      5-min Rain = 0
KBR1 171512Z 02013KT 03/M03 A3026 RMK A01 T00321029  RH  064%=      5-min Rain = 0
KBR1 171513Z 02013KT 03/M03 A3026 RMK A01 T00321030  RH  064%=      5-min Rain = 0
KBR1 171514Z 01011KT 03/M03 A3026 RMK A01 T00331029  RH  064%=      5-min Rain = 0
KBR1 171515Z 00015KT 03/M03 A3026 RMK A01 T00341029  RH  064%=      5-min Rain = 0
KBR1 171516Z 01015KT 03/M03 A3026 RMK A01 T00331030  RH  063%=      5-min Rain = 0
KBR1 171517Z 01014KT 03/M03 A3026 RMK A01 T00331030  RH  063%=      5-min Rain = 0
KBR1 171518Z 01013KT 03/M03 A3026 RMK A01 T00331030  RH  063%=      5-min Rain = 0
KBR1 171519Z 00015KT 03/M03 A3026 RMK A01 T00331030  RH  063%=      5-min Rain = 0
KBR1 171520Z 00014KT 03/M03 A3026 RMK A01 T00331031  RH  063%=      5-min Rain = 0
KBR1 171521Z 01013KT 03/M03 A3026 RMK A01 T00321030  RH  063%=      5-min Rain = 0
KBR1 171522Z 01015KT 03/M03 A3026 RMK A01 T00321030  RH  063%=      5-min Rain = 0
KBR1 171523Z 01012KT 03/M03 A3026 RMK A01 T00331030  RH  064%=      5-min Rain = 0
KBR1 171524Z 01011KT 03/M03 A3026 RMK A01 T00341029  RH  063%=      5-min Rain = 0
KBR1 171525Z 01011KT 03/M03 A3026 RMK A01 T00341029  RH  063%=      5-min Rain = 0
KBR1 171526Z 01013KT 03/M03 A3026 RMK A01 T00341029  RH  063%=      5-min Rain = 0
KBR1 171527Z 00011KT 03/M03 A3026 RMK A01 T00341030  RH  063%=      5-min Rain = 0
KBR1 171528Z 01012KT 03/M03 A3026 RMK A01 T00341030  RH  063%=      5-min Rain = 0
KBR1 171529Z 00011KT 03/M03 A3026 RMK A01 T00341029  RH  063%=      5-min Rain = 0
KBR1 171530Z 00011KT 03/M03 A3026 RMK A01 T00341029  RH  063%=      5-min Rain = 0
KBR1 171531Z 36011KT 03/M03 A3026 RMK A01 T00341029  RH  063%=      5-min Rain = 0
KBR1 171532Z 01014KT 03/M03 A3026 RMK A01 T00341029  RH  063%=      5-min Rain = 0
KBR1 171533Z 01013KT 03/M03 A3026 RMK A01 T00341030  RH  063%=      5-min Rain = 0
KBR1 171534Z 02012KT 03/M03 A3026 RMK A01 T00331031  RH  063%=      5-min Rain = 0
KBR1 171535Z 02014KT 03/M03 A3026 RMK A01 T00341030  RH  063%=      5-min Rain = 0
KBR1 171536Z 01013KT 03/M03 A3026 RMK A01 T00341030  RH  063%=      5-min Rain = 0
KBR1 171537Z 01013KT 03/M03 A3026 RMK A01 T00341030  RH  063%=      5-min Rain = 0
KBR1 171538Z 02013KT 04/M03 A3026 RMK A01 T00351030  RH  063%=      5-min Rain = 0
KBR1 171539Z 01011KT 04/M03 A3026 RMK A01 T00361028  RH  063%=      5-min Rain = 0
KBR1 171540Z 36012KT 04/M03 A3026 RMK A01 T00371028  RH  063%=      5-min Rain = 0
KBR1 171541Z 00013KT 04/M03 A3026 RMK A01 T00371030  RH  062%=      5-min Rain = 0
KBR1 171542Z 01010KT 04/M03 A3026 RMK A01 T00361029  RH  062%=      5-min Rain = 0
KBR1 171543Z 01011KT 04/M03 A3026 RMK A01 T00371028  RH  062%=      5-min Rain = 0
KBR1 171544Z 01010KT 04/M03 A3026 RMK A01 T00371029  RH  062%=      5-min Rain = 0
KBR1 171545Z 36011KT 04/M03 A3026 RMK A01 T00371028  RH  062%=      5-min Rain = 0
KBR1 171546Z 01012KT 04/M03 A3026 RMK A01 T00381028  RH  062%=      5-min Rain = 0
KBR1 171547Z 01011KT 04/M03 A3026 RMK A01 T00381029  RH  062%=      5-min Rain = 0
KBR1 171548Z 02011KT 04/M03 A3026 RMK A01 T00381029  RH  062%=      5-min Rain = 0
KBR1 171549Z 36010KT 04/M03 A3026 RMK A01 T00371030  RH  062%=      5-min Rain = 0
KBR1 171550Z 36011KT 04/M03 A3026 RMK A01 T00371028  RH  062%=      5-min Rain = 0
KBR1 171551Z 01010KT 04/M03 A3026 RMK A01 T00381029  RH  062%=      5-min Rain = 0
KBR1 171552Z 02013KT 04/M03 A3026 RMK A01 T00381028  RH  062%=      5-min Rain = 0
KBR1 171553Z 01012KT 04/M03 A3026 RMK A01 T00381030  RH  061%=      5-min Rain = 0
KBR1 171554Z 01013KT 04/M03 A3026 RMK A01 T00381029  RH  061%=      5-min Rain = 0
KBR1 171555Z 01012KT 04/M03 A3026 RMK A01 T00381030  RH  061%=      5-min Rain = 0
KBR1 171556Z 02011KT 04/M03 A3026 RMK A01 T00381029  RH  062%=      5-min Rain = 0
KBR1 171557Z 02010KT 04/M03 A3026 RMK A01 T00381029  RH  061%=      5-min Rain = 0
KBR1 171558Z 01011KT 04/M03 A3026 RMK A01 T00381029  RH  062%=      5-min Rain = 0
KBR1 171559Z 36011KT 04/M03 A3026 RMK A01 T00381029  RH  062%=      5-min Rain = 0
KBR1 171600Z 00011KT 04/M03 A3026 RMK A01 T00381028  RH  062%=      5-min Rain = 0
KBR1 171601Z 02012KT 04/M03 A3026 RMK A01 T00401027  RH  062%=      5-min Rain = 0
KBR1 171602Z 01013KT 04/M03 A3026 RMK A01 T00401028  RH  061%=      5-min Rain = 0
KBR1 171603Z 01012KT 04/M03 A3026 RMK A01 T00401028  RH  061%=      5-min Rain = 0
KBR1 171604Z 01010KT 04/M03 A3026 RMK A01 T00391029  RH  061%=      5-min Rain = 0
KBR1 171605Z 01010KT 04/M03 A3026 RMK A01 T00391028  RH  062%=      5-min Rain = 0
KBR1 171606Z 02010KT 04/M03 A3026 RMK A01 T00401028  RH  061%=      5-min Rain = 0
KBR1 171607Z 03012KT 04/M03 A3026 RMK A01 T00401027  RH  062%=      5-min Rain = 0
KBR1 171608Z 02013KT 04/M03 A3026 RMK A01 T00401027  RH  061%=      5-min Rain = 0
KBR1 171609Z 03015KT 04/M03 A3026 RMK A01 T00411028  RH  061%=      5-min Rain = 0
KBR1 171610Z 02014KT 04/M03 A3026 RMK A01 T00401028  RH  061%=      5-min Rain = 0
KBR1 171611Z 01012KT 04/M03 A3026 RMK A01 T00401027  RH  062%=      5-min Rain = 0
KBR1 171612Z 01011KT 04/M03 A3026 RMK A01 T00401028  RH  061%=      5-min Rain = 0
KBR1 171613Z 01010KT 04/M03 A3026 RMK A01 T00391027  RH  062%=      5-min Rain = 0
KBR1 171614Z 01012KT 04/M03 A3026 RMK A01 T00401027  RH  062%=      5-min Rain = 0
KBR1 171615Z 02013KT 04/M03 A3026 RMK A01 T00401027  RH  062%=      5-min Rain = 0
KBR1 171616Z 02013KT 04/M03 A3026 RMK A01 T00401027  RH  061%=      5-min Rain = 0
KBR1 171617Z 03013KT 04/M03 A3026 RMK A01 T00401027  RH  062%=      5-min Rain = 0
KBR1 171618Z 03013KT 04/M03 A3026 RMK A01 T00391027  RH  062%=      5-min Rain = 0
KBR1 171619Z 04012KT 04/M03 A3026 RMK A01 T00391027  RH  062%=      5-min Rain = 0
KBR1 171620Z 04010KT 04/M03 A3026 RMK A01 T00391027  RH  062%=      5-min Rain = 0
KBR1 171621Z 04010KT 04/M03 A3026 RMK A01 T00401027  RH  062%=      5-min Rain = 0
KBR1 171622Z 03011KT 04/M03 A3026 RMK A01 T00411025  RH  062%=      5-min Rain = 0
KBR1 171623Z 03012KT 04/M03 A3026 RMK A01 T00421026  RH  061%=      5-min Rain = 0
KBR1 171624Z 02014KT 04/M03 A3026 RMK A01 T00431027  RH  061%=      5-min Rain = 0
KBR1 171625Z 02013KT 04/M03 A3026 RMK A01 T00431028  RH  060%=      5-min Rain = 0
KBR1 171626Z 02014KT 04/M03 A3026 RMK A01 T00421028  RH  060%=      5-min Rain = 0
KBR1 171627Z 02012KT 04/M03 A3026 RMK A01 T00421028  RH  060%=      5-min Rain = 0
KBR1 171628Z 02012KT 04/M03 A3026 RMK A01 T00421028  RH  060%=      5-min Rain = 0
KBR1 171629Z 02014KT 04/M03 A3026 RMK A01 T00421028  RH  061%=      5-min Rain = 0
KBR1 171630Z 02013KT 04/M03 A3026 RMK A01 T00421027  RH  061%=      5-min Rain = 0
KBR1 171631Z 02014KT 04/M03 A3026 RMK A01 T00421027  RH  061%=      5-min Rain = 0
KBR1 171632Z 02012KT 04/M03 A3026 RMK A01 T00421026  RH  061%=      5-min Rain = 0
KBR1 171633Z 02011KT 04/M03 A3026 RMK A01 T00431025  RH  061%=      5-min Rain = 0
KBR1 171634Z 02009KT 04/M03 A3026 RMK A01 T00431026  RH  061%=      5-min Rain = 0
KBR1 171635Z 01008KT 04/M03 A3026 RMK A01 T00431026  RH  061%=      5-min Rain = 0
KBR1 171636Z 04010KT 04/M03 A3026 RMK A01 T00431026  RH  061%=      5-min Rain = 0
KBR1 171637Z 04012KT 04/M03 A3026 RMK A01 T00431026  RH  061%=      5-min Rain = 0
KBR1 171638Z 03013KT 04/M03 A3026 RMK A01 T00431025  RH  061%=      5-min Rain = 0
KBR1 171639Z 05014KT 04/M03 A3026 RMK A01 T00431025  RH  061%=      5-min Rain = 0
KBR1 171640Z 04015KT 04/M03 A3026 RMK A01 T00441025  RH  061%=      5-min Rain = 0
KBR1 171641Z 03014KT 04/M03 A3026 RMK A01 T00431025  RH  061%=      5-min Rain = 0
KBR1 171642Z 04014KT 04/M03 A3026 RMK A01 T00431025  RH  061%=      5-min Rain = 0
KBR1 171643Z 04013KT 04/M03 A3026 RMK A01 T00431025  RH  061%=      5-min Rain = 0
KBR1 171644Z 04012KT 04/M03 A3026 RMK A01 T00431025  RH  062%=      5-min Rain = 0
KBR1 171645Z 03011KT 04/M03 A3026 RMK A01 T00421026  RH  061%=      5-min Rain = 0
KBR1 171646Z 03011KT 04/M03 A3026 RMK A01 T00411025  RH  062%=      5-min Rain = 0
KBR1 171647Z 04014KT 04/M02 A3026 RMK A01 T00421024  RH  062%=      5-min Rain = 0
KBR1 171648Z 04013KT 04/M03 A3026 RMK A01 T00421025  RH  062%=      5-min Rain = 0
KBR1 171649Z 03013KT 04/M03 A3026 RMK A01 T00421025  RH  062%=      5-min Rain = 0
KBR1 171650Z 03012KT 04/M03 A3026 RMK A01 T00411025  RH  062%=      5-min Rain = 0
KBR1 171651Z 02011KT 04/M03 A3026 RMK A01 T00411025  RH  062%=      5-min Rain = 0
KBR1 171652Z 02012KT 04/M02 A3026 RMK A01 T00431023  RH  062%=      5-min Rain = 0
KBR1 171653Z 02011KT 04/M02 A3026 RMK A01 T00441024  RH  061%=      5-min Rain = 0
KBR1 171654Z 03010KT 04/M03 A3025 RMK A01 T00441025  RH  061%=      5-min Rain = 0
KBR1 171655Z 03012KT 04/M03 A3025 RMK A01 T00441025  RH  061%=      5-min Rain = 0
KBR1 171656Z 03010KT 04/M03 A3025 RMK A01 T00441025  RH  061%=      5-min Rain = 0
KBR1 171657Z 03009KT 05/M02 A3025 RMK A01 T00451023  RH  062%=      5-min Rain = 0
KBR1 171658Z 01011KT 05/M02 A3025 RMK A01 T00471022  RH  061%=      5-min Rain = 0
KBR1 171659Z 02014KT 05/M02 A3025 RMK A01 T00471024  RH  060%=      5-min Rain = 0
KBR1 171700Z 03012KT 05/M03 A3025 RMK A01 T00451025  RH  060%=      5-min Rain = 0
KBR1 171701Z 03012KT 05/M02 A3025 RMK A01 T00461024  RH  060%=      5-min Rain = 0
KBR1 171702Z 02012KT 05/M03 A3025 RMK A01 T00471025  RH  060%=      5-min Rain = 0
KBR1 171703Z 02012KT 05/M03 A3025 RMK A01 T00461026  RH  060%=      5-min Rain = 0
KBR1 171704Z 01012KT 05/M03 A3025 RMK A01 T00461025  RH  060%=      5-min Rain = 0
KBR1 171705Z 01013KT 05/M03 A3025 RMK A01 T00471025  RH  059%=      5-min Rain = 0
KBR1 171706Z 01010KT 05/M03 A3025 RMK A01 T00471025  RH  059%=      5-min Rain = 0
KBR1 171707Z 02011KT 05/M02 A3025 RMK A01 T00481024  RH  060%=      5-min Rain = 0
KBR1 171708Z 03013KT 05/M02 A3025 RMK A01 T00491023  RH  060%=      5-min Rain = 0
KBR1 171709Z 01014KT 05/M03 A3025 RMK A01 T00501025  RH  058%=      5-min Rain = 0
KBR1 171710Z 02015KT 05/M03 A3025 RMK A01 T00481026  RH  058%=      5-min Rain = 0
KBR1 171711Z 02015KT 05/M03 A3025 RMK A01 T00481026  RH  059%=      5-min Rain = 0
KBR1 171712Z 02014KT 05/M03 A3025 RMK A01 T00481027  RH  059%=      5-min Rain = 0
KBR1 171713Z 04013KT 05/M03 A3025 RMK A01 T00481026  RH  059%=      5-min Rain = 0
KBR1 171714Z 02013KT 05/M03 A3025 RMK A01 T00481027  RH  059%=      5-min Rain = 0
KBR1 171715Z 01014KT 05/M03 A3025 RMK A01 T00481025  RH  059%=      5-min Rain = 0
KBR1 171716Z 02014KT 05/M03 A3025 RMK A01 T00481027  RH  058%=      5-min Rain = 0
KBR1 171717Z 02010KT 05/M03 A3025 RMK A01 T00461027  RH  059%=      5-min Rain = 0
KBR1 171718Z 02011KT 05/M02 A3025 RMK A01 T00471024  RH  060%=      5-min Rain = 0
KBR1 171719Z 02012KT 05/M02 A3025 RMK A01 T00491023  RH  060%=      5-min Rain = 0
KBR1 171720Z 02014KT 05/M02 A3025 RMK A01 T00491024  RH  059%=      5-min Rain = 0
KBR1 171721Z 03010KT 05/M02 A3025 RMK A01 T00491024  RH  059%=      5-min Rain = 0
KBR1 171722Z 02010KT 05/M02 A3025 RMK A01 T00491024  RH  059%=      5-min Rain = 0
KBR1 171723Z 01011KT 05/M02 A3025 RMK A01 T00491022  RH  060%=      5-min Rain = 0
KBR1 171724Z 02011KT 05/M02 A3025 RMK A01 T00511023  RH  059%=      5-min Rain = 0
KBR1 171725Z 03009G14KT 05/M03 A3025 RMK A01 T00481026  RH  059%=      5-min Rain = 0
KBR1 171726Z 02012KT 05/M02 A3025 RMK A01 T00471024  RH  060%=      5-min Rain = 0
KBR1 171727Z 02012KT 05/M02 A3025 RMK A01 T00491024  RH  059%=      5-min Rain = 0
KBR1 171728Z 01012KT 05/M02 A3025 RMK A01 T00491023  RH  060%=      5-min Rain = 0
KBR1 171729Z 03010KT 05/M02 A3025 RMK A01 T00501022  RH  060%=      5-min Rain = 0
KBR1 171730Z 03010KT 05/M02 A3025 RMK A01 T00511021  RH  060%=      5-min Rain = 0
KBR1 171731Z 02009KT 05/M02 A3025 RMK A01 T00521022  RH  059%=      5-min Rain = 0
KBR1 171732Z 03014KT 05/M02 A3025 RMK A01 T00511023  RH  059%=      5-min Rain = 0
KBR1 171733Z 02013KT 05/M02 A3025 RMK A01 T00501024  RH  059%=      5-min Rain = 0
KBR1 171734Z 03014KT 05/M02 A3025 RMK A01 T00481024  RH  059%=      5-min Rain = 0
KBR1 171735Z 03011KT 05/M03 A3025 RMK A01 T00481025  RH  059%=      5-min Rain = 0
KBR1 171736Z 02012KT 05/M03 A3025 RMK A01 T00461025  RH  060%=      5-min Rain = 0
KBR1 171737Z 02012KT 05/M02 A3025 RMK A01 T00471022  RH  061%=      5-min Rain = 0
KBR1 171738Z 00014KT 05/M02 A3025 RMK A01 T00501021  RH  060%=      5-min Rain = 0
KBR1 171739Z 01015KT 05/M02 A3025 RMK A01 T00491022  RH  060%=      5-min Rain = 0
KBR1 171740Z 04013KT 05/M02 A3025 RMK A01 T00491022  RH  060%=      5-min Rain = 0
KBR1 171741Z 04014KT 05/M02 A3025 RMK A01 T00481022  RH  061%=      5-min Rain = 0
KBR1 171742Z 02013KT 05/M02 A3025 RMK A01 T00481022  RH  061%=      5-min Rain = 0
KBR1 171743Z 03013KT 05/M02 A3025 RMK A01 T00471021  RH  061%=      5-min Rain = 0
KBR1 171744Z 02012KT 05/M02 A3025 RMK A01 T00471021  RH  061%=      5-min Rain = 0
KBR1 171745Z 02013KT 05/M02 A3025 RMK A01 T00481020  RH  061%=      5-min Rain = 0
KBR1 171746Z 03011KT 05/M02 A3025 RMK A01 T00471021  RH  062%=      5-min Rain = 0
KBR1 171747Z 04013KT 05/M02 A3025 RMK A01 T00471019  RH  062%=      5-min Rain = 0
KBR1 171748Z 04013KT 05/M02 A3025 RMK A01 T00481020  RH  061%=      5-min Rain = 0
KBR1 171749Z 03012KT 05/M02 A3025 RMK A01 T00481020  RH  061%=      5-min Rain = 0
KBR1 171750Z 03013KT 05/M02 A3025 RMK A01 T00481021  RH  061%=      5-min Rain = 0
KBR1 171751Z 03011KT 05/M02 A3025 RMK A01 T00471021  RH  061%=      5-min Rain = 0
KBR1 171752Z 03012KT 05/M02 A3024 RMK A01 T00491021  RH  061%=      5-min Rain = 0
KBR1 171753Z 02010KT 05/M02 A3024 RMK A01 T00481022  RH  060%=      5-min Rain = 0
KBR1 171754Z 02009KT 05/M02 A3024 RMK A01 T00491022  RH  060%=      5-min Rain = 0
KBR1 171755Z 02011KT 05/M02 A3024 RMK A01 T00491022  RH  060%=      5-min Rain = 0
KBR1 171756Z 03010KT 05/M02 A3024 RMK A01 T00501021  RH  060%=      5-min Rain = 0
KBR1 171757Z 03008KT 05/M02 A3024 RMK A01 T00501021  RH  060%=      5-min Rain = 0
KBR1 171758Z 01012KT 05/M02 A3024 RMK A01 T00511020  RH  060%=      5-min Rain = 0
KBR1 171759Z 02012KT 05/M02 A3024 RMK A01 T00521021  RH  060%=      5-min Rain = 0
KBR1 171800Z 02012KT 05/M02 A3024 RMK A01 T00521020  RH  060%=      5-min Rain = 0
KBR1 171801Z 02010KT 05/M02 A3024 RMK A01 T00511019  RH  060%=      5-min Rain = 0
KBR1 171802Z 03009KT 05/M02 A3024 RMK A01 T00521018  RH  060%=      5-min Rain = 0
KBR1 171803Z 03010KT 05/M02 A3024 RMK A01 T00541017  RH  060%=      5-min Rain = 0
KBR1 171804Z 35012KT 06/M02 A3024 RMK A01 T00551019  RH  059%=      5-min Rain = 0
KBR1 171805Z 01011KT 05/M02 A3024 RMK A01 T00541022  RH  058%=      5-min Rain = 0
KBR1 171806Z 03010KT 05/M02 A3024 RMK A01 T00531022  RH  059%=      5-min Rain = 0
KBR1 171807Z 01011KT 06/M02 A3024 RMK A01 T00551021  RH  058%=      5-min Rain = 0
KBR1 171808Z 36009KT 06/M02 A3024 RMK A01 T00561022  RH  057%=      5-min Rain = 0
KBR1 171809Z 35008KT 06/M02 A3024 RMK A01 T00561024  RH  056%=      5-min Rain = 0
KBR1 171810Z 01009KT 06/M03 A3024 RMK A01 T00551025  RH  057%=      5-min Rain = 0
KBR1 171811Z 02012KT 06/M02 A3024 RMK A01 T00551023  RH  057%=      5-min Rain = 0
KBR1 171812Z 02012KT 06/M02 A3024 RMK A01 T00561023  RH  057%=      5-min Rain = 0
KBR1 171813Z 02011KT 06/M02 A3024 RMK A01 T00561024  RH  056%=      5-min Rain = 0
KBR1 171814Z 01010KT 06/M02 A3024 RMK A01 T00561024  RH  056%=      5-min Rain = 0
KBR1 171815Z 01012KT 06/M02 A3024 RMK A01 T00571022  RH  057%=      5-min Rain = 0
KBR1 171816Z 02012KT 06/M02 A3024 RMK A01 T00601022  RH  056%=      5-min Rain = 0
KBR1 171817Z 02013KT 06/M02 A3024 RMK A01 T00611024  RH  054%=      5-min Rain = 0
KBR1 171818Z 02011KT 06/M03 A3024 RMK A01 T00591026  RH  054%=      5-min Rain = 0
KBR1 171819Z 02009KT 06/M03 A3024 RMK A01 T00571027  RH  055%=      5-min Rain = 0
KBR1 171820Z 03009KT 06/M03 A3024 RMK A01 T00571027  RH  055%=      5-min Rain = 0
KBR1 171821Z 04014KT 06/M02 A3024 RMK A01 T00581024  RH  055%=      5-min Rain = 0
KBR1 171822Z 03011KT 06/M03 A3024 RMK A01 T00601027  RH  054%=      5-min Rain = 0
KBR1 171823Z 02009KT 06/M03 A3024 RMK A01 T00571029  RH  054%=      5-min Rain = 0
KBR1 171824Z 36009KT 06/M03 A3024 RMK A01 T00551028  RH  055%=      5-min Rain = 0
KBR1 171825Z 01011G16KT 06/M03 A3024 RMK A01 T00561027  RH  055%=      5-min Rain = 0
KBR1 171826Z 01013KT 06/M03 A3024 RMK A01 T00591025  RH  055%=      5-min Rain = 0
KBR1 171827Z 01012KT 06/M03 A3024 RMK A01 T00601026  RH  054%=      5-min Rain = 0
KBR1 171828Z 01011KT 06/M03 A3024 RMK A01 T00591027  RH  054%=      5-min Rain = 0
KBR1 171829Z 02007KT 06/M03 A3024 RMK A01 T00571029  RH  054%=      5-min Rain = 0
KBR1 171830Z 03007KT 06/M03 A3024 RMK A01 T00561028  RH  054%=      5-min Rain = 0
KBR1 171831Z 02008KT 06/M03 A3023 RMK A01 T00571026  RH  055%=      5-min Rain = 0
KBR1 171832Z 00011KT 06/M03 A3023 RMK A01 T00591025  RH  055%=      5-min Rain = 0
KBR1 171833Z 00015KT 06/M03 A3023 RMK A01 T00621025  RH  054%=      5-min Rain = 0
KBR1 171834Z 01015KT 06/M03 A3023 RMK A01 T00641027  RH  052%=      5-min Rain = 0
KBR1 171835Z 01013G18KT 06/M03 A3023 RMK A01 T00631026  RH  053%=      5-min Rain = 0
KBR1 171836Z 01012KT 06/M03 A3023 RMK A01 T00641026  RH  052%=      5-min Rain = 0
KBR1 171837Z 02012KT 06/M03 A3023 RMK A01 T00631029  RH  052%=      5-min Rain = 0
KBR1 171838Z 03011KT 06/M03 A3023 RMK A01 T00611029  RH  052%=      5-min Rain = 0
KBR1 171839Z 02007KT 06/M03 A3023 RMK A01 T00601028  RH  053%=      5-min Rain = 0
KBR1 171840Z 02009KT 06/M02 A3023 RMK A01 T00621024  RH  054%=      5-min Rain = 0
KBR1 171841Z 36012KT 07/M02 A3023 RMK A01 T00651023  RH  053%=      5-min Rain = 0
KBR1 171842Z 35012KT 07/M03 A3023 RMK A01 T00661025  RH  052%=      5-min Rain = 0
KBR1 171843Z 35012KT 07/M02 A3023 RMK A01 T00661023  RH  053%=      5-min Rain = 0
KBR1 171844Z 35015G25KT 07/M03 A3023 RMK A01 T00661026  RH  052%=      5-min Rain = 0
KBR1 171845Z 02013G18KT 07/M03 A3023 RMK A01 T00661026  RH  052%=      5-min Rain = 0
KBR1 171846Z 00013KT 07/M03 A3023 RMK A01 T00661025  RH  052%=      5-min Rain = 0
KBR1 171847Z 36012KT 07/M03 A3023 RMK A01 T00661025  RH  052%=      5-min Rain = 0
KBR1 171848Z 36012KT 07/M03 A3023 RMK A01 T00651025  RH  053%=      5-min Rain = 0
KBR1 171849Z 36008KT 07/M02 A3023 RMK A01 T00661024  RH  053%=      5-min Rain = 0
KBR1 171850Z 03010KT 07/M03 A3023 RMK A01 T00661025  RH  052%=      5-min Rain = 0
KBR1 171851Z 02010KT 07/M03 A3023 RMK A01 T00661025  RH  052%=      5-min Rain = 0
KBR1 171852Z 01010KT 07/M03 A3023 RMK A01 T00661025  RH  052%=      5-min Rain = 0
KBR1 171853Z 00008KT 07/M03 A3023 RMK A01 T00651027  RH  052%=      5-min Rain = 0
KBR1 171854Z 01014KT 07/M03 A3023 RMK A01 T00651026  RH  052%=      5-min Rain = 0
KBR1 171855Z 01013KT 07/M03 A3023 RMK A01 T00661025  RH  052%=      5-min Rain = 0
KBR1 171856Z 01012KT 07/M03 A3023 RMK A01 T00671026  RH  052%=      5-min Rain = 0
KBR1 171857Z 01010KT 07/M03 A3023 RMK A01 T00661026  RH  052%=      5-min Rain = 0
KBR1 171858Z 01010KT 07/M03 A3023 RMK A01 T00651027  RH  052%=      5-min Rain = 0
KBR1 171859Z 01011KT 07/M03 A3022 RMK A01 T00661025  RH  052%=      5-min Rain = 0
KBR1 171900Z 01012KT 07/M02 A3022 RMK A01 T00691024  RH  052%=      5-min Rain = 0
KBR1 171901Z 01011KT 07/M03 A3022 RMK A01 T00681028  RH  050%=      5-min Rain = 0
KBR1 171902Z 02011KT 07/M03 A3022 RMK A01 T00661028  RH  051%=      5-min Rain = 0
KBR1 171903Z 01011KT 07/M03 A3022 RMK A01 T00661027  RH  052%=      5-min Rain = 0
KBR1 171904Z 02012KT 07/M03 A3022 RMK A01 T00661026  RH  052%=      5-min Rain = 0
KBR1 171905Z 02011KT 07/M03 A3022 RMK A01 T00661026  RH  052%=      5-min Rain = 0
KBR1 171906Z 01011KT 07/M03 A3022 RMK A01 T00671027  RH  051%=      5-min Rain = 0
KBR1 171907Z 02011KT 07/M03 A3022 RMK A01 T00661028  RH  051%=      5-min Rain = 0
KBR1 171908Z 02010KT 07/M03 A3022 RMK A01 T00661030  RH  051%=      5-min Rain = 0
KBR1 171909Z 02014KT 07/M03 A3022 RMK A01 T00661028  RH  051%=      5-min Rain = 0
KBR1 171910Z 01012KT 07/M03 A3022 RMK A01 T00671027  RH  051%=      5-min Rain = 0
KBR1 171911Z 01010KT 07/M03 A3022 RMK A01 T00671028  RH  051%=      5-min Rain = 0
KBR1 171912Z 02007KT 07/M03 A3022 RMK A01 T00651029  RH  051%=      5-min Rain = 0
KBR1 171913Z 35008KT 07/M03 A3022 RMK A01 T00651027  RH  052%=      5-min Rain = 0
KBR1 171914Z 35008KT 07/M03 A3022 RMK A01 T00671026  RH  052%=      5-min Rain = 0
KBR1 171915Z 00010KT 07/M02 A3022 RMK A01 T00691023  RH  052%=      5-min Rain = 0
KBR1 171916Z 01011KT 07/M02 A3022 RMK A01 T00721023  RH  051%=      5-min Rain = 0
KBR1 171917Z 02013KT 07/M02 A3022 RMK A01 T00721023  RH  051%=      5-min Rain = 0
KBR1 171918Z 01012KT 07/M03 A3022 RMK A01 T00731025  RH  050%=      5-min Rain = 0
KBR1 171919Z 01013KT 07/M03 A3022 RMK A01 T00721027  RH  049%=      5-min Rain = 0
KBR1 171920Z 36013KT 07/M03 A3022 RMK A01 T00701029  RH  049%=      5-min Rain = 0
KBR1 171921Z 35010KT 07/M03 A3022 RMK A01 T00681030  RH  050%=      5-min Rain = 0
KBR1 171922Z 00010KT 07/M03 A3022 RMK A01 T00691027  RH  050%=      5-min Rain = 0
KBR1 171923Z 36011KT 07/M03 A3022 RMK A01 T00721025  RH  050%=      5-min Rain = 0
KBR1 171924Z 00015KT 07/M03 A3022 RMK A01 T00731026  RH  049%=      5-min Rain = 0
KBR1 171925Z 36013KT 07/M03 A3022 RMK A01 T00721027  RH  049%=      5-min Rain = 0
KBR1 171926Z 01012KT 07/M03 A3022 RMK A01 T00711027  RH  049%=      5-min Rain = 0
KBR1 171927Z 02010KT 07/M03 A3022 RMK A01 T00701026  RH  050%=      5-min Rain = 0
KBR1 171928Z 00012KT 07/M03 A3022 RMK A01 T00721025  RH  050%=      5-min Rain = 0
KBR1 171929Z 35015KT 07/M03 A3022 RMK A01 T00711028  RH  049%=      5-min Rain = 0
KBR1 171930Z 36013KT 07/M03 A3022 RMK A01 T00711027  RH  050%=      5-min Rain = 0
KBR1 171931Z 00013KT 07/M03 A3022 RMK A01 T00711027  RH  050%=      5-min Rain = 0
KBR1 171932Z 00013KT 07/M03 A3022 RMK A01 T00711027  RH  049%=      5-min Rain = 0
KBR1 171933Z 00013KT 07/M03 A3022 RMK A01 T00691028  RH  050%=      5-min Rain = 0
KBR1 171934Z 01011KT 07/M03 A3022 RMK A01 T00681028  RH  050%=      5-min Rain = 0
KBR1 171935Z 36008KT 07/M03 A3021 RMK A01 T00671027  RH  051%=      5-min Rain = 0
KBR1 171936Z 36012KT 07/M02 A3021 RMK A01 T00701023  RH  051%=      5-min Rain = 0
KBR1 171937Z 00015KT 07/M03 A3021 RMK A01 T00731025  RH  050%=      5-min Rain = 0
KBR1 171938Z 01012KT 07/M03 A3021 RMK A01 T00731027  RH  049%=      5-min Rain = 0
KBR1 171939Z 02011KT 07/M03 A3021 RMK A01 T00731028  RH  049%=      5-min Rain = 0
KBR1 171940Z 02011KT 07/M03 A3021 RMK A01 T00731027  RH  049%=      5-min Rain = 0
KBR1 171941Z 36013KT 07/M03 A3021 RMK A01 T00731026  RH  049%=      5-min Rain = 0
KBR1 171942Z 00011KT 07/M03 A3021 RMK A01 T00731026  RH  049%=      5-min Rain = 0
KBR1 171943Z 01010KT 07/M03 A3021 RMK A01 T00731025  RH  050%=      5-min Rain = 0
KBR1 171944Z 00013KT 07/M03 A3021 RMK A01 T00731026  RH  049%=      5-min Rain = 0
KBR1 171945Z 36013KT 07/M03 A3021 RMK A01 T00731027  RH  049%=      5-min Rain = 0
KBR1 171946Z 36013KT 07/M03 A3021 RMK A01 T00721027  RH  049%=      5-min Rain = 0
KBR1 171947Z 36013KT 07/M03 A3021 RMK A01 T00721028  RH  049%=      5-min Rain = 0
KBR1 171948Z 36014KT 07/M03 A3021 RMK A01 T00711027  RH  049%=      5-min Rain = 0
KBR1 171949Z 01014KT 07/M03 A3021 RMK A01 T00721028  RH  049%=      5-min Rain = 0
KBR1 171950Z 00012KT 07/M03 A3021 RMK A01 T00711028  RH  049%=      5-min Rain = 0
KBR1 171951Z 01011KT 07/M03 A3021 RMK A01 T00721028  RH  049%=      5-min Rain = 0
KBR1 171952Z 36012KT 07/M03 A3021 RMK A01 T00721028  RH  049%=      5-min Rain = 0
KBR1 171953Z 03012KT 07/M03 A3021 RMK A01 T00721028  RH  049%=      5-min Rain = 0
KBR1 171954Z 01012KT 07/M03 A3021 RMK A01 T00741028  RH  048%=      5-min Rain = 0
KBR1 171955Z 02012KT 08/M03 A3021 RMK A01 T00751029  RH  048%=      5-min Rain = 0
KBR1 171956Z 03011KT 07/M03 A3021 RMK A01 T00741031  RH  047%=      5-min Rain = 0
KBR1 171957Z 03010KT 07/M03 A3021 RMK A01 T00741031  RH  047%=      5-min Rain = 0
KBR1 171958Z 02008KT 08/M03 A3021 RMK A01 T00751031  RH  047%=      5-min Rain = 0
KBR1 171959Z 02009KT 08/M03 A3021 RMK A01 T00751029  RH  047%=      5-min Rain = 0
KBR1 172000Z 01012KT 08/M03 A3021 RMK A01 T00791027  RH  047%=      5-min Rain = 0
KBR1 172001Z 00011KT 08/M03 A3021 RMK A01 T00811028  RH  046%=      5-min Rain = 0
KBR1 172002Z 01011G16KT 08/M03 A3021 RMK A01 T00811029  RH  046%=      5-min Rain = 0
KBR1 172003Z 01013KT 08/M03 A302 RMK A01 T00801030  RH  046%=      5-min Rain = 0
KBR1 172004Z 35015KT 08/M03 A3021 RMK A01 T00791030  RH  046%=      5-min Rain = 0
KBR1 172005Z 36011KT 08/M03 A3021 RMK A01 T00771032  RH  046%=      5-min Rain = 0
KBR1 172006Z 00012KT 08/M03 A302 RMK A01 T00781030  RH  046%=      5-min Rain = 0
KBR1 172007Z 02013KT 08/M03 A302 RMK A01 T00781031  RH  046%=      5-min Rain = 0
KBR1 172008Z 03011KT 08/M03 A302 RMK A01 T00781031  RH  046%=      5-min Rain = 0
KBR1 172009Z 03011KT 08/M03 A302 RMK A01 T00791029  RH  046%=      5-min Rain = 0
KBR1 172010Z 04008KT 08/M03 A302 RMK A01 T00801029  RH  046%=      5-min Rain = 0
KBR1 172011Z 02011KT 08/M03 A302 RMK A01 T00811030  RH  046%=      5-min Rain = 0
KBR1 172012Z 01013KT 08/M03 A302 RMK A01 T00811031  RH  045%=      5-min Rain = 0
KBR1 172013Z 01012KT 08/M03 A302 RMK A01 T00791031  RH  046%=      5-min Rain = 0
KBR1 172014Z 36009KT 08/M03 A302 RMK A01 T00791031  RH  046%=      5-min Rain = 0
KBR1 172015Z 35010KT 08/M03 A302 RMK A01 T00791030  RH  046%=      5-min Rain = 0
KBR1 172016Z 00012KT 08/M03 A302 RMK A01 T00801030  RH  046%=      5-min Rain = 0
KBR1 172017Z 01011KT 08/M03 A302 RMK A01 T00801030  RH  046%=      5-min Rain = 0
KBR1 172018Z 03013KT 08/M03 A302 RMK A01 T00791029  RH  046%=      5-min Rain = 0
KBR1 172019Z 03008KT 08/M03 A302 RMK A01 T00791032  RH  046%=      5-min Rain = 0
KBR1 172020Z 04009KT 08/M03 A302 RMK A01 T00781029  RH  047%=      5-min Rain = 0
KBR1 172021Z 04009KT 08/M03 A302 RMK A01 T00791030  RH  046%=      5-min Rain = 0
KBR1 172022Z 02008KT 08/M03 A302 RMK A01 T00781031  RH  046%=      5-min Rain = 0
KBR1 172023Z 04011KT 08/M03 A302 RMK A01 T00791029  RH  046%=      5-min Rain = 0
KBR1 172024Z 03009KT 08/M03 A302 RMK A01 T00811027  RH  046%=      5-min Rain = 0
KBR1 172025Z 01011KT 08/M03 A302 RMK A01 T00841025  RH  046%=      5-min Rain = 0
KBR1 172026Z 00012KT 08/M03 A302 RMK A01 T00841029  RH  045%=      5-min Rain = 0
KBR1 172027Z 01008KT 08/M03 A3019 RMK A01 T00801032  RH  045%=      5-min Rain = 0
KBR1 172028Z 01006KT 08/M03 A3019 RMK A01 T00781031  RH  046%=      5-min Rain = 0
KBR1 172029Z 02008G14KT 08/M03 A3019 RMK A01 T00791030  RH  046%=      5-min Rain = 0
KBR1 172030Z 02012KT 08/M03 A3019 RMK A01 T00811030  RH  046%=      5-min Rain = 0
KBR1 172031Z 02011KT 08/M03 A3019 RMK A01 T00801034  RH  045%=      5-min Rain = 0
KBR1 172032Z 01010KT 08/M03 A3019 RMK A01 T00791033  RH  045%=      5-min Rain = 0
KBR1 172033Z 01010KT 08/M03 A302 RMK A01 T00801032  RH  045%=      5-min Rain = 0
KBR1 172034Z 03008KT 08/M03 A302 RMK A01 T00801031  RH  045%=      5-min Rain = 0
KBR1 172035Z 35012KT 08/M03 A302 RMK A01 T00811030  RH  045%=      5-min Rain = 0
KBR1 172036Z 01011KT 08/M03 A3019 RMK A01 T00831028  RH  045%=      5-min Rain = 0
KBR1 172037Z 01010KT 09/M03 A3019 RMK A01 T00851029  RH  045%=      5-min Rain = 0
KBR1 172038Z 01009KT 09/M03 A3019 RMK A01 T00851028  RH  045%=      5-min Rain = 0
KBR1 172039Z 03011KT 09/M03 A3019 RMK A01 T00851029  RH  045%=      5-min Rain = 0
KBR1 172040Z 02009KT 09/M03 A3019 RMK A01 T00871027  RH  044%=      5-min Rain = 0
KBR1 172041Z 02007KT 09/M03 A3019 RMK A01 T00891027  RH  044%=      5-min Rain = 0
KBR1 172042Z 03006KT 09/M03 A3019 RMK A01 T00881031  RH  043%=      5-min Rain = 0
KBR1 172043Z 04005KT 09/M03 A3019 RMK A01 T00881028  RH  044%=      5-min Rain = 0
KBR1 172044Z 02010KT 09/M03 A3019 RMK A01 T00901027  RH  044%=      5-min Rain = 0
KBR1 172045Z 03007KT 09/M03 A3019 RMK A01 T00931027  RH  043%=      5-min Rain = 0
KBR1 172046Z 03007KT 09/M03 A3019 RMK A01 T00891032  RH  043%=      5-min Rain = 0
KBR1 172047Z 03012KT 09/M03 A3019 RMK A01 T00871029  RH  044%=      5-min Rain = 0
KBR1 172048Z 03012KT 09/M03 A3019 RMK A01 T00881031  RH  043%=      5-min Rain = 0
KBR1 172049Z 04012KT 09/M03 A3019 RMK A01 T00871033  RH  043%=      5-min Rain = 0
KBR1 172050Z 02010KT 09/M03 A3019 RMK A01 T00871033  RH  043%=      5-min Rain = 0
KBR1 172051Z 02008KT 09/M03 A3019 RMK A01 T00881032  RH  043%=      5-min Rain = 0
KBR1 172052Z 04008KT 09/M03 A3019 RMK A01 T00901029  RH  043%=      5-min Rain = 0
KBR1 172053Z 05009KT 09/M03 A3019 RMK A01 T00941028  RH  042%=      5-min Rain = 0
KBR1 172054Z 06006KT 09/M03 A3019 RMK A01 T00931032  RH  041%=      5-min Rain = 0
KBR1 172055Z 02007KT 09/M03 A3019 RMK A01 T00921032  RH  042%=      5-min Rain = 0
KBR1 172056Z 06008KT 09/M03 A3019 RMK A01 T00921028  RH  043%=      5-min Rain = 0
KBR1 172057Z 04013KT 10/M03 A3018 RMK A01 T00951026  RH  043%=      5-min Rain = 0
KBR1 172058Z 02012KT 09/M03 A3019 RMK A01 T00941031  RH  041%=      5-min Rain = 0
KBR1 172059Z 02010KT 09/M04 A3019 RMK A01 T00891035  RH  041%=      5-min Rain = 0
KBR1 172100Z 04009KT 09/M03 A3019 RMK A01 T00861033  RH  043%=      5-min Rain = 0
KBR1 172101Z 05010KT 09/M03 A3019 RMK A01 T00871030  RH  043%=      5-min Rain = 0
KBR1 172102Z 04008KT 09/M03 A3019 RMK A01 T00891032  RH  042%=      5-min Rain = 0
KBR1 172103Z 05006KT 09/M04 A3019 RMK A01 T00891035  RH  042%=      5-min Rain = 0
KBR1 172104Z 04004KT 09/M04 A3018 RMK A01 T00861035  RH  042%=      5-min Rain = 0
KBR1 172105Z 02010KT 09/M03 A3018 RMK A01 T00881030  RH  043%=      5-min Rain = 0
KBR1 172106Z 02010KT 09/M03 A3018 RMK A01 T00911031  RH  042%=      5-min Rain = 0
KBR1 172107Z 02013KT 09/M03 A3018 RMK A01 T00931031  RH  041%=      5-min Rain = 0
KBR1 172108Z 03011KT 09/M04 A3018 RMK A01 T00921037  RH  040%=      5-min Rain = 0
KBR1 172109Z 02011KT 09/M04 A3018 RMK A01 T00881040  RH  040%=      5-min Rain = 0
KBR1 172110Z 04011KT 09/M04 A3018 RMK A01 T00871040  RH  041%=      5-min Rain = 0
KBR1 172111Z 05008KT 09/M04 A3018 RMK A01 T00871041  RH  040%=      5-min Rain = 0
KBR1 172112Z 04006KT 09/M04 A3018 RMK A01 T00871040  RH  041%=      5-min Rain = 0
KBR1 172113Z 04006KT 09/M04 A3018 RMK A01 T00851038  RH  042%=      5-min Rain = 0
KBR1 172114Z 04005KT 09/M04 A3018 RMK A01 T00861036  RH  042%=      5-min Rain = 0
KBR1 172115Z 05007KT 09/M03 A3018 RMK A01 T00891031  RH  042%=      5-min Rain = 0
KBR1 172116Z 05008KT 09/M04 A3018 RMK A01 T00891036  RH  041%=      5-min Rain = 0
KBR1 172117Z 04009KT 09/M04 A3018 RMK A01 T00871036  RH  042%=      5-min Rain = 0
KBR1 172118Z 36011KT 09/M03 A3018 RMK A01 T00871033  RH  043%=      5-min Rain = 0
KBR1 172119Z 34011KT 09/M04 A3018 RMK A01 T00891035  RH  041%=      5-min Rain = 0
KBR1 172120Z 02012KT 09/M04 A3017 RMK A01 T00891036  RH  041%=      5-min Rain = 0
KBR1 172121Z 04008KT 09/M04 A3017 RMK A01 T00901036  RH  041%=      5-min Rain = 0
KBR1 172122Z 03008KT 09/M04 A3017 RMK A01 T00891038  RH  041%=      5-min Rain = 0
KBR1 172123Z 04004KT 09/M04 A3017 RMK A01 T00871039  RH  041%=      5-min Rain = 0
KBR1 172124Z 02006KT 09/M04 A3017 RMK A01 T00861037  RH  042%=      5-min Rain = 0
KBR1 172125Z 03010KT 09/M03 A3017 RMK A01 T00881030  RH  043%=      5-min Rain = 0
KBR1 172126Z 04012KT 09/M03 A3017 RMK A01 T00911034  RH  041%=      5-min Rain = 0
KBR1 172127Z 03009KT 09/M04 A3017 RMK A01 T00891037  RH  041%=      5-min Rain = 0
KBR1 172128Z 03007KT 09/M04 A3017 RMK A01 T00891035  RH  042%=      5-min Rain = 0
KBR1 172129Z 02006KT 09/M03 A3017 RMK A01 T00901032  RH  042%=      5-min Rain = 0
KBR1 172130Z 03006KT 09/M03 A3017 RMK A01 T00931032  RH  041%=      5-min Rain = 0
KBR1 172131Z 04006KT 09/M03 A3017 RMK A01 T00931033  RH  041%=      5-min Rain = 0
KBR1 172132Z 01007KT 10/M03 A3017 RMK A01 T00951029  RH  041%=      5-min Rain = 0
KBR1 172133Z 02006KT 10/M04 A3017 RMK A01 T00951035  RH  040%=      5-min Rain = 0
KBR1 172134Z 04010KT 09/M03 A3017 RMK A01 T00921032  RH  041%=      5-min Rain = 0
KBR1 172135Z 03011KT 09/M03 A3017 RMK A01 T00931034  RH  041%=      5-min Rain = 0
KBR1 172136Z 03013KT 09/M03 A3017 RMK A01 T00921034  RH  041%=      5-min Rain = 0
KBR1 172137Z 03012KT 09/M04 A3017 RMK A01 T00911037  RH  040%=      5-min Rain = 0
KBR1 172138Z 04010KT 09/M04 A3017 RMK A01 T00901038  RH  040%=      5-min Rain = 0
KBR1 172139Z 02008KT 09/M04 A3017 RMK A01 T00891038  RH  041%=      5-min Rain = 0
KBR1 172140Z 02008KT 09/M04 A3017 RMK A01 T00891036  RH  041%=      5-min Rain = 0
KBR1 172141Z 03011KT 09/M03 A3017 RMK A01 T00911033  RH  042%=      5-min Rain = 0
KBR1 172142Z 04010KT 09/M03 A3017 RMK A01 T00911034  RH  041%=      5-min Rain = 0
KBR1 172143Z 05012KT 09/M03 A3017 RMK A01 T00901034  RH  041%=      5-min Rain = 0
KBR1 172144Z 03010KT 09/M03 A3017 RMK A01 T00901034  RH  041%=      5-min Rain = 0
KBR1 172145Z 04009KT 09/M03 A3016 RMK A01 T00911034  RH  041%=      5-min Rain = 0
KBR1 172146Z 04009KT 09/M03 A3017 RMK A01 T00921033  RH  041%=      5-min Rain = 0
KBR1 172147Z 03010KT 09/M03 A3016 RMK A01 T00931031  RH  041%=      5-min Rain = 0
KBR1 172148Z 02011KT 09/M04 A3016 RMK A01 T00921036  RH  040%=      5-min Rain = 0
KBR1 172149Z 02010KT 09/M04 A3016 RMK A01 T00911037  RH  040%=      5-min Rain = 0
KBR1 172150Z 03008KT 09/M04 A3016 RMK A01 T00871040  RH  040%=      5-min Rain = 0
KBR1 172151Z 01011KT 09/M04 A3016 RMK A01 T00861037  RH  042%=      5-min Rain = 0
KBR1 172152Z 00010KT 09/M04 A3016 RMK A01 T00861038  RH  041%=      5-min Rain = 0
KBR1 172153Z 01009KT 09/M04 A3016 RMK A01 T00851037  RH  042%=      5-min Rain = 0
KBR1 172154Z 01011KT 09/M04 A3016 RMK A01 T00861036  RH  042%=      5-min Rain = 0
KBR1 172155Z 01010KT 09/M04 A3016 RMK A01 T00861036  RH  042%=      5-min Rain = 0
KBR1 172156Z 01011KT 09/M03 A3016 RMK A01 T00871034  RH  042%=      5-min Rain = 0
KBR1 172157Z 01010KT 09/M04 A3016 RMK A01 T00891036  RH  041%=      5-min Rain = 0
KBR1 172158Z 00010KT 09/M04 A3016 RMK A01 T00891036  RH  041%=      5-min Rain = 0
KBR1 172159Z 03012KT 09/M03 A3016 RMK A01 T00901032  RH  042%=      5-min Rain = 0
KBR1 172200Z 04011KT 09/M03 A3016 RMK A01 T00931032  RH  041%=      5-min Rain = 0
KBR1 172201Z 02008KT 09/M03 A3016 RMK A01 T00931033  RH  041%=      5-min Rain = 0
KBR1 172202Z 02009KT 09/M04 A3016 RMK A01 T00921036  RH  040%=      5-min Rain = 0
KBR1 172203Z 02008KT 09/M04 A3016 RMK A01 T00891037  RH  041%=      5-min Rain = 0
KBR1 172204Z 01005KT 09/M04 A3016 RMK A01 T00901036  RH  041%=      5-min Rain = 0
KBR1 172205Z 01008KT 09/M04 A3016 RMK A01 T00901036  RH  041%=      5-min Rain = 0
KBR1 172206Z 01008KT 09/M04 A3016 RMK A01 T00911035  RH  041%=      5-min Rain = 0
KBR1 172207Z 01010KT 09/M04 A3016 RMK A01 T00911038  RH  040%=      5-min Rain = 0
KBR1 172208Z 00011KT 09/M04 A3016 RMK A01 T00921037  RH  040%=      5-min Rain = 0
KBR1 172209Z 36009KT 09/M04 A3016 RMK A01 T00931039  RH  039%=      5-min Rain = 0
KBR1 172210Z 01011G16KT 09/M04 A3016 RMK A01 T00941040  RH  039%=      5-min Rain = 0
KBR1 172211Z 04013KT 09/M04 A3016 RMK A01 T00931037  RH  040%=      5-min Rain = 0
KBR1 172212Z 04012KT 09/M04 A3016 RMK A01 T00921035  RH  041%=      5-min Rain = 0
KBR1 172213Z 02014KT 09/M03 A3016 RMK A01 T00931032  RH  041%=      5-min Rain = 0
KBR1 172214Z 01013KT 09/M03 A3016 RMK A01 T00941034  RH  041%=      5-min Rain = 0
KBR1 172215Z 01012KT 09/M04 A3016 RMK A01 T00921036  RH  040%=      5-min Rain = 0
KBR1 172216Z 01009KT 09/M04 A3016 RMK A01 T00901037  RH  041%=      5-min Rain = 0
KBR1 172217Z 02012KT 09/M04 A3016 RMK A01 T00901036  RH  041%=      5-min Rain = 0
KBR1 172218Z 04012KT 09/M04 A3016 RMK A01 T00901035  RH  041%=      5-min Rain = 0
KBR1 172219Z 04011KT 09/M04 A3016 RMK A01 T00911037  RH  040%=      5-min Rain = 0
KBR1 172220Z 04008KT 09/M04 A3016 RMK A01 T00901038  RH  040%=      5-min Rain = 0
KBR1 172221Z 01010KT 09/M04 A3016 RMK A01 T00891037  RH  041%=      5-min Rain = 0
KBR1 172222Z 01011KT 09/M04 A3016 RMK A01 T00891038  RH  041%=      5-min Rain = 0
KBR1 172223Z 02011KT 09/M04 A3016 RMK A01 T00891037  RH  041%=      5-min Rain = 0
KBR1 172224Z 03009KT 09/M04 A3016 RMK A01 T00901037  RH  041%=      5-min Rain = 0
KBR1 172225Z 04007KT 09/M04 A3016 RMK A01 T00911038  RH  040%=      5-min Rain = 0
KBR1 172226Z 05007KT 09/M04 A3016 RMK A01 T00901037  RH  040%=      5-min Rain = 0
KBR1 172227Z 04008KT 09/M04 A3016 RMK A01 T00901036  RH  041%=      5-min Rain = 0
KBR1 172228Z 03010KT 09/M03 A3016 RMK A01 T00901034  RH  041%=      5-min Rain = 0
KBR1 172229Z 02011KT 09/M03 A3016 RMK A01 T00921033  RH  041%=      5-min Rain = 0
KBR1 172230Z 01008KT 09/M04 A3016 RMK A01 T00921035  RH  041%=      5-min Rain = 0
KBR1 172231Z 00010KT 09/M03 A3016 RMK A01 T00941032  RH  041%=      5-min Rain = 0
KBR1 172232Z 00009KT 09/M03 A3016 RMK A01 T00941034  RH  040%=      5-min Rain = 0
KBR1 172233Z 00010KT 09/M04 A3016 RMK A01 T00931035  RH  040%=      5-min Rain = 0
KBR1 172234Z 36012KT 09/M04 A3016 RMK A01 T00901037  RH  040%=      5-min Rain = 0
KBR1 172235Z 01013KT 09/M04 A3016 RMK A01 T00901035  RH  041%=      5-min Rain = 0
KBR1 172236Z 36010KT 09/M03 A3016 RMK A01 T00901034  RH  041%=      5-min Rain = 0
KBR1 172237Z 35010KT 09/M03 A3016 RMK A01 T00911033  RH  041%=      5-min Rain = 0
KBR1 172238Z 01012KT 09/M03 A3016 RMK A01 T00921033  RH  041%=      5-min Rain = 0
KBR1 172239Z 01011KT 09/M03 A3016 RMK A01 T00931034  RH  041%=      5-min Rain = 0
KBR1 172240Z 02011KT 09/M03 A3016 RMK A01 T00921034  RH  041%=      5-min Rain = 0
KBR1 172241Z 02011KT 09/M04 A3016 RMK A01 T00911035  RH  041%=      5-min Rain = 0
KBR1 172242Z 01012KT 09/M03 A3016 RMK A01 T00901034  RH  041%=      5-min Rain = 0
KBR1 172243Z 03010KT 09/M03 A3016 RMK A01 T00901033  RH  042%=      5-min Rain = 0
KBR1 172244Z 03010KT 09/M03 A3016 RMK A01 T00901033  RH  042%=      5-min Rain = 0
KBR1 172245Z 02010KT 09/M03 A3016 RMK A01 T00901032  RH  042%=      5-min Rain = 0
KBR1 172246Z 03009KT 09/M03 A3016 RMK A01 T00901033  RH  042%=      5-min Rain = 0
KBR1 172247Z 05009KT 09/M03 A3016 RMK A01 T00911032  RH  042%=      5-min Rain = 0
KBR1 172248Z 05012KT 09/M03 A3016 RMK A01 T00911033  RH  041%=      5-min Rain = 0
KBR1 172249Z 04010KT 09/M03 A3016 RMK A01 T00911034  RH  041%=      5-min Rain = 0
KBR1 172250Z 03009KT 09/M04 A3016 RMK A01 T00911035  RH  041%=      5-min Rain = 0
KBR1 172251Z 03011KT 09/M04 A3016 RMK A01 T00901035  RH  041%=      5-min Rain = 0
KBR1 172252Z 03011KT 09/M04 A3016 RMK A01 T00881036  RH  041%=      5-min Rain = 0
KBR1 172253Z 02010KT 09/M04 A3016 RMK A01 T00881035  RH  042%=      5-min Rain = 0
KBR1 172254Z 03010KT 09/M04 A3016 RMK A01 T00881035  RH  042%=      5-min Rain = 0
KBR1 172255Z 02009KT 09/M03 A3016 RMK A01 T00881034  RH  042%=      5-min Rain = 0
KBR1 172256Z 01007KT 09/M03 A3016 RMK A01 T00881034  RH  042%=      5-min Rain = 0
KBR1 172257Z 01011KT 09/M03 A3016 RMK A01 T00891033  RH  042%=      5-min Rain = 0
KBR1 172258Z 02010KT 09/M03 A3016 RMK A01 T00891033  RH  042%=      5-min Rain = 0
KBR1 172259Z 01009KT 09/M03 A3016 RMK A01 T00891033  RH  042%=      5-min Rain = 0
KBR1 172300Z 01009KT 09/M03 A3016 RMK A01 T00901033  RH  042%=      5-min Rain = 0
KBR1 172301Z 00010KT 09/M03 A3016 RMK A01 T00891033  RH  042%=      5-min Rain = 0
KBR1 172302Z 36008KT 09/M03 A3016 RMK A01 T00891032  RH  042%=      5-min Rain = 0
KBR1 172303Z 35009KT 09/M03 A3016 RMK A01 T00901032  RH  042%=      5-min Rain = 0
KBR1 172304Z 01007KT 09/M04 A3016 RMK A01 T00891036  RH  041%=      5-min Rain = 0
KBR1 172305Z 01008KT 09/M04 A3016 RMK A01 T00871036  RH  042%=      5-min Rain = 0
KBR1 172306Z 01009KT 09/M04 A3016 RMK A01 T00871035  RH  042%=      5-min Rain = 0
KBR1 172307Z 03009KT 09/M04 A3016 RMK A01 T00881035  RH  042%=      5-min Rain = 0
KBR1 172308Z 03008KT 09/M04 A3016 RMK A01 T00881035  RH  042%=      5-min Rain = 0
KBR1 172309Z 03007KT 09/M04 A3016 RMK A01 T00881035  RH  042%=      5-min Rain = 0
KBR1 172310Z 04008KT 09/M03 A3016 RMK A01 T00881034  RH  042%=      5-min Rain = 0
KBR1 172311Z 05006KT 09/M04 A3016 RMK A01 T00891036  RH  041%=      5-min Rain = 0
KBR1 172312Z 04006KT 09/M04 A3016 RMK A01 T00881036  RH  041%=      5-min Rain = 0
KBR1 172313Z 01008KT 09/M03 A3016 RMK A01 T00881033  RH  042%=      5-min Rain = 0
KBR1 172314Z 00010KT 09/M03 A3016 RMK A01 T00901030  RH  043%=      5-min Rain = 0
KBR1 172315Z 02008KT 09/M03 A3016 RMK A01 T00901032  RH  042%=      5-min Rain = 0
KBR1 172316Z 04010KT 09/M03 A3016 RMK A01 T00901031  RH  042%=      5-min Rain = 0
KBR1 172317Z 04011KT 09/M03 A3016 RMK A01 T00901031  RH  042%=      5-min Rain = 0
KBR1 172318Z 04011KT 09/M03 A3016 RMK A01 T00901030  RH  043%=      5-min Rain = 0
KBR1 172319Z 03011KT 09/M03 A3016 RMK A01 T00901032  RH  042%=      5-min Rain = 0
KBR1 172320Z 03010KT 09/M03 A3016 RMK A01 T00881033  RH  042%=      5-min Rain = 0
KBR1 172321Z 04009KT 09/M03 A3016 RMK A01 T00871032  RH  043%=      5-min Rain = 0
KBR1 172322Z 04011KT 09/M03 A3016 RMK A01 T00871032  RH  043%=      5-min Rain = 0
KBR1 172323Z 03010KT 09/M03 A3016 RMK A01 T00861034  RH  043%=      5-min Rain = 0
KBR1 172324Z 03009KT 09/M03 A3016 RMK A01 T00851033  RH  043%=      5-min Rain = 0
KBR1 172325Z 04010KT 09/M03 A3016 RMK A01 T00851032  RH  043%=      5-min Rain = 0
KBR1 172326Z 04011KT 09/M03 A3017 RMK A01 T00861032  RH  043%=      5-min Rain = 0
KBR1 172327Z 02009KT 09/M03 A3017 RMK A01 T00861033  RH  043%=      5-min Rain = 0
KBR1 172328Z 01009KT 09/M03 A3017 RMK A01 T00861032  RH  043%=      5-min Rain = 0
KBR1 172329Z 00008KT 09/M03 A3017 RMK A01 T00861032  RH  043%=      5-min Rain = 0
KBR1 172330Z 01009KT 09/M03 A3017 RMK A01 T00861030  RH  044%=      5-min Rain = 0
KBR1 172331Z 01008KT 09/M03 A3017 RMK A01 T00871033  RH  043%=      5-min Rain = 0
KBR1 172332Z 01008KT 09/M03 A3017 RMK A01 T00851034  RH  043%=      5-min Rain = 0
KBR1 172333Z 01009KT 09/M03 A3017 RMK A01 T00851033  RH  043%=      5-min Rain = 0
KBR1 172334Z 04010KT 09/M03 A3017 RMK A01 T00861032  RH  043%=      5-min Rain = 0
KBR1 172335Z 04010KT 09/M03 A3017 RMK A01 T00861034  RH  043%=      5-min Rain = 0
KBR1 172336Z 03011KT 09/M03 A3017 RMK A01 T00861033  RH  043%=      5-min Rain = 0
KBR1 172337Z 01008KT 09/M03 A3017 RMK A01 T00861033  RH  043%=      5-min Rain = 0
KBR1 172338Z 00011KT 09/M03 A3017 RMK A01 T00871032  RH  043%=      5-min Rain = 0
KBR1 172339Z 36012KT 09/M03 A3017 RMK A01 T00871034  RH  042%=      5-min Rain = 0
KBR1 172340Z 01011KT 09/M04 A3017 RMK A01 T00861035  RH  042%=      5-min Rain = 0
KBR1 172341Z 02012KT 09/M04 A3017 RMK A01 T00861035  RH  042%=      5-min Rain = 0
KBR1 172342Z 01010KT 09/M04 A3017 RMK A01 T00851037  RH  042%=      5-min Rain = 0
KBR1 172343Z 01009KT 08/M04 A3017 RMK A01 T00841037  RH  042%=      5-min Rain = 0
KBR1 172344Z 01009KT 08/M04 A3017 RMK A01 T00841035  RH  043%=      5-min Rain = 0
KBR1 172345Z 02009KT 09/M03 A3017 RMK A01 T00851034  RH  043%=      5-min Rain = 0
KBR1 172346Z 02010KT 09/M03 A3017 RMK A01 T00851033  RH  043%=      5-min Rain = 0
KBR1 172347Z 04010KT 09/M03 A3017 RMK A01 T00851033  RH  043%=      5-min Rain = 0
KBR1 172348Z 03008KT 09/M03 A3017 RMK A01 T00851032  RH  044%=      5-min Rain = 0
KBR1 172349Z 02010KT 09/M03 A3017 RMK A01 T00851031  RH  044%=      5-min Rain = 0
KBR1 172350Z 02011KT 09/M03 A3017 RMK A01 T00851032  RH  044%=      5-min Rain = 0
KBR1 172351Z 01010KT 08/M03 A3017 RMK A01 T00841032  RH  044%=      5-min Rain = 0
KBR1 172352Z 02010KT 08/M03 A3017 RMK A01 T00831032  RH  044%=      5-min Rain = 0
KBR1 172353Z 02009KT 08/M03 A3017 RMK A01 T00831032  RH  044%=      5-min Rain = 0
KBR1 172354Z 01008KT 08/M03 A3017 RMK A01 T00831031  RH  044%=      5-min Rain = 0
KBR1 172355Z 01013KT 08/M03 A3017 RMK A01 T00831030  RH  045%=      5-min Rain = 0
KBR1 172356Z 01012KT 08/M03 A3017 RMK A01 T00821031  RH  045%=      5-min Rain = 0
KBR1 172357Z 01010KT 08/M03 A3017 RMK A01 T00811030  RH  045%=      5-min Rain = 0
KBR1 172358Z 02010KT 08/M03 A3017 RMK A01 T00811030  RH  045%=      5-min Rain = 0
KBR1 172359Z 01007KT 08/M03 A3017 RMK A01 T00821031  RH  045%=      5-min Rain = 0
KBR1 180000Z 02012KT 08/M03 A3017 RMK A01 T00821029  RH  045%=      5-min Rain = 0
KBR1 180001Z 02011KT 08/M03 A3017 RMK A01 T00821028  RH  046%=      5-min Rain = 0
KBR1 180002Z 02011KT 08/M03 A3017 RMK A01 T00811027  RH  046%=      5-min Rain = 0
KBR1 180003Z 03010KT 08/M03 A3017 RMK A01 T00811025  RH  047%=      5-min Rain = 0
KBR1 180004Z 02010KT 08/M03 A3017 RMK A01 T00821026  RH  046%=      5-min Rain = 0
KBR1 180005Z 02012KT 08/M03 A3017 RMK A01 T00821027  RH  046%=      5-min Rain = 0
KBR1 180006Z 02012KT 08/M03 A3017 RMK A01 T00811029  RH  045%=      5-min Rain = 0
KBR1 180007Z 02011KT 08/M03 A3017 RMK A01 T00801030  RH  046%=      5-min Rain = 0
KBR1 180008Z 02011KT 08/M03 A3017 RMK A01 T00801030  RH  046%=      5-min Rain = 0
KBR1 180009Z 01010KT 08/M03 A3017 RMK A01 T00801030  RH  046%=      5-min Rain = 0
KBR1 180010Z 02010KT 08/M03 A3017 RMK A01 T00791030  RH  046%=      5-min Rain = 0
KBR1 180011Z 02009KT 08/M03 A3017 RMK A01 T00791029  RH  046%=      5-min Rain = 0
KBR1 180012Z 02009KT 08/M03 A3017 RMK A01 T00801029  RH  046%=      5-min Rain = 0
KBR1 180013Z 03009KT 08/M03 A3017 RMK A01 T00801030  RH  046%=      5-min Rain = 0
KBR1 180014Z 03008KT 08/M03 A3017 RMK A01 T00801031  RH  045%=      5-min Rain = 0
KBR1 180015Z 04008KT 08/M03 A3017 RMK A01 T00801031  RH  045%=      5-min Rain = 0
KBR1 180016Z 02009KT 08/M03 A3017 RMK A01 T00801029  RH  046%=      5-min Rain = 0
KBR1 180017Z 02010KT 08/M03 A3017 RMK A01 T00811029  RH  046%=      5-min Rain = 0
KBR1 180018Z 02010KT 08/M03 A3017 RMK A01 T00811028  RH  046%=      5-min Rain = 0
KBR1 180019Z 02012KT 08/M03 A3017 RMK A01 T00811026  RH  047%=      5-min Rain = 0
KBR1 180020Z 03012KT 08/M03 A3017 RMK A01 T00811026  RH  047%=      5-min Rain = 0
KBR1 180021Z 03012KT 08/M03 A3017 RMK A01 T00801026  RH  047%=      5-min Rain = 0
KBR1 180022Z 03012KT 08/M03 A3017 RMK A01 T00801026  RH  047%=      5-min Rain = 0
KBR1 180023Z 03012KT 08/M03 A3017 RMK A01 T00791026  RH  047%=      5-min Rain = 0
KBR1 180024Z 03012KT 08/M03 A3017 RMK A01 T00791026  RH  047%=      5-min Rain = 0
KBR1 180025Z 04012KT 08/M03 A3017 RMK A01 T00791026  RH  047%=      5-min Rain = 0
KBR1 180026Z 04010KT 08/M03 A3018 RMK A01 T00801026  RH  047%=      5-min Rain = 0
KBR1 180027Z 03011KT 08/M03 A3018 RMK A01 T00791025  RH  048%=      5-min Rain = 0
KBR1 180028Z 03010KT 08/M03 A3018 RMK A01 T00791026  RH  048%=      5-min Rain = 0
KBR1 180029Z 03011KT 08/M03 A3018 RMK A01 T00791026  RH  048%=      5-min Rain = 0
KBR1 180030Z 02011KT 08/M03 A3018 RMK A01 T00791026  RH  048%=      5-min Rain = 0
KBR1 180031Z 02010KT 08/M03 A3018 RMK A01 T00781026  RH  048%=      5-min Rain = 0
KBR1 180032Z 02010KT 08/M03 A3018 RMK A01 T00781026  RH  048%=      5-min Rain = 0
KBR1 180033Z 03009KT 08/M03 A3018 RMK A01 T00781025  RH  048%=      5-min Rain = 0
KBR1 180034Z 01011KT 08/M02 A3018 RMK A01 T00781024  RH  048%=      5-min Rain = 0
KBR1 180035Z 01012KT 08/M03 A3018 RMK A01 T00791025  RH  048%=      5-min Rain = 0
KBR1 180036Z 02010KT 08/M03 A3018 RMK A01 T00791027  RH  047%=      5-min Rain = 0
KBR1 180037Z 01009KT 08/M03 A3018 RMK A01 T00781027  RH  047%=      5-min Rain = 0
KBR1 180038Z 01010KT 08/M03 A3018 RMK A01 T00781026  RH  048%=      5-min Rain = 0
KBR1 180039Z 01010KT 08/M03 A3018 RMK A01 T00781025  RH  048%=      5-min Rain = 0
KBR1 180040Z 02011KT 08/M03 A3018 RMK A01 T00781026  RH  048%=      5-min Rain = 0
KBR1 180041Z 02010KT 08/M03 A3018 RMK A01 T00781026  RH  048%=      5-min Rain = 0
KBR1 180042Z 02009KT 08/M03 A3018 RMK A01 T00781026  RH  048%=      5-min Rain = 0
KBR1 180043Z 02009KT 08/M03 A3018 RMK A01 T00771027  RH  048%=      5-min Rain = 0
KBR1 180044Z 02009KT 08/M03 A3018 RMK A01 T00781026  RH  048%=      5-min Rain = 0
KBR1 180045Z 02010KT 08/M03 A3018 RMK A01 T00781026  RH  048%=      5-min Rain = 0
KBR1 180046Z 02009KT 08/M03 A3018 RMK A01 T00771026  RH  048%=      5-min Rain = 0
KBR1 180047Z 02008KT 08/M03 A3018 RMK A01 T00771026  RH  048%=      5-min Rain = 0
KBR1 180048Z 02010KT 08/M03 A3018 RMK A01 T00771025  RH  048%=      5-min Rain = 0
KBR1 180049Z 02010KT 08/M03 A3018 RMK A01 T00771026  RH  048%=      5-min Rain = 0
KBR1 180050Z 03010KT 08/M03 A3018 RMK A01 T00771027  RH  048%=      5-min Rain = 0
KBR1 180051Z 03008KT 08/M03 A3018 RMK A01 T00771026  RH  048%=      5-min Rain = 0
KBR1 180052Z 03009KT 08/M03 A3018 RMK A01 T00771026  RH  048%=      5-min Rain = 0
KBR1 180053Z 04010KT 08/M03 A3018 RMK A01 T00761027  RH  048%=      5-min Rain = 0
KBR1 180054Z 03009KT 08/M03 A3018 RMK A01 T00771027  RH  048%=      5-min Rain = 0
KBR1 180055Z 02009KT 08/M03 A3018 RMK A01 T00771026  RH  048%=      5-min Rain = 0
KBR1 180056Z 03009KT 08/M03 A3018 RMK A01 T00761026  RH  048%=      5-min Rain = 0
KBR1 180057Z 04009KT 08/M03 A3018 RMK A01 T00761027  RH  048%=      5-min Rain = 0
KBR1 180058Z 04009KT 08/M03 A3018 RMK A01 T00761028  RH  048%=      5-min Rain = 0
KBR1 180059Z 04008KT 08/M03 A3018 RMK A01 T00761027  RH  048%=      5-min Rain = 0
KBR1 180100Z 03008KT 08/M03 A3018 RMK A01 T00761027  RH  048%=      5-min Rain = 0
KBR1 180101Z 03007KT 08/M03 A3018 RMK A01 T00761027  RH  048%=      5-min Rain = 0
KBR1 180102Z 03007KT 08/M03 A3018 RMK A01 T00761026  RH  049%=      5-min Rain = 0
KBR1 180103Z 03007KT 08/M02 A3018 RMK A01 T00761024  RH  049%=      5-min Rain = 0
KBR1 180104Z 03008KT 08/M03 A3018 RMK A01 T00751025  RH  049%=      5-min Rain = 0
KBR1 180105Z 03009KT 08/M03 A3018 RMK A01 T00761026  RH  049%=      5-min Rain = 0
KBR1 180106Z 03007KT 08/M03 A3018 RMK A01 T00761026  RH  049%=      5-min Rain = 0
KBR1 180107Z 03008KT 08/M03 A3018 RMK A01 T00751026  RH  049%=      5-min Rain = 0
KBR1 180108Z 03007KT 08/M03 A3018 RMK A01 T00751026  RH  049%=      5-min Rain = 0
KBR1 180109Z 03007KT 08/M03 A3018 RMK A01 T00751025  RH  049%=      5-min Rain = 0
KBR1 180110Z 03008KT 08/M02 A3018 RMK A01 T00751024  RH  050%=      5-min Rain = 0
KBR1 180111Z 03008KT 08/M02 A3018 RMK A01 T00751024  RH  050%=      5-min Rain = 0
KBR1 180112Z 03009KT 08/M02 A3018 RMK A01 T00751024  RH  050%=      5-min Rain = 0
KBR1 180113Z 03008KT 08/M02 A3018 RMK A01 T00751024  RH  050%=      5-min Rain = 0
KBR1 180114Z 03007KT 07/M02 A3018 RMK A01 T00741024  RH  050%=      5-min Rain = 0
KBR1 180115Z 03006KT 07/M02 A3018 RMK A01 T00741024  RH  050%=      5-min Rain = 0
KBR1 180116Z 02008KT 07/M02 A3018 RMK A01 T00741023  RH  050%=      5-min Rain = 0
KBR1 180117Z 02008KT 07/M02 A3018 RMK A01 T00741024  RH  050%=      5-min Rain = 0
KBR1 180118Z 03007KT 07/M02 A3018 RMK A01 T00741024  RH  050%=      5-min Rain = 0
KBR1 180119Z 03007KT 07/M02 A3018 RMK A01 T00731024  RH  050%=      5-min Rain = 0
KBR1 180120Z 03007KT 07/M02 A3018 RMK A01 T00731023  RH  050%=      5-min Rain = 0
KBR1 180121Z 03007KT 07/M02 A3018 RMK A01 T00731024  RH  050%=      5-min Rain = 0
KBR1 180122Z 03007KT 07/M02 A3018 RMK A01 T00731024  RH  050%=      5-min Rain = 0
KBR1 180123Z 04007KT 07/M02 A3018 RMK A01 T00731023  RH  050%=      5-min Rain = 0
KBR1 180124Z 04006KT 07/M02 A3018 RMK A01 T00731023  RH  050%=      5-min Rain = 0
KBR1 180125Z 03006KT 07/M02 A3018 RMK A01 T00721024  RH  050%=      5-min Rain = 0
KBR1 180126Z 03006KT 07/M02 A3018 RMK A01 T00721023  RH  051%=      5-min Rain = 0
KBR1 180127Z 03006KT 07/M02 A3018 RMK A01 T00721024  RH  051%=      5-min Rain = 0
KBR1 180128Z 03006KT 07/M02 A3018 RMK A01 T00721024  RH  051%=      5-min Rain = 0
KBR1 180129Z 03006KT 07/M02 A3018 RMK A01 T00711024  RH  051%=      5-min Rain = 0
KBR1 180130Z 03006KT 07/M02 A3018 RMK A01 T00711024  RH  051%=      5-min Rain = 0
KBR1 180131Z 03005KT 07/M02 A3019 RMK A01 T00711023  RH  051%=      5-min Rain = 0
KBR1 180132Z 02005KT 07/M02 A3019 RMK A01 T00701023  RH  052%=      5-min Rain = 0
KBR1 180133Z 03005KT 07/M02 A3019 RMK A01 T00701023  RH  052%=      5-min Rain = 0
KBR1 180134Z 02005KT 07/M02 A3019 RMK A01 T00701022  RH  052%=      5-min Rain = 0
KBR1 180135Z 03005KT 07/M02 A3019 RMK A01 T00691022  RH  052%=      5-min Rain = 0
KBR1 180136Z 03005KT 07/M02 A3019 RMK A01 T00691022  RH  052%=      5-min Rain = 0
KBR1 180137Z 03005KT 07/M02 A3019 RMK A01 T00691022  RH  052%=      5-min Rain = 0
KBR1 180138Z 03005KT 07/M02 A3019 RMK A01 T00691023  RH  052%=      5-min Rain = 0
KBR1 180139Z 03005KT 07/M02 A3019 RMK A01 T00691023  RH  052%=      5-min Rain = 0
KBR1 180140Z 03004KT 07/M02 A3019 RMK A01 T00681023  RH  052%=      5-min Rain = 0
KBR1 180141Z 03004KT 07/M02 A3019 RMK A01 T00681022  RH  053%=      5-min Rain = 0
KBR1 180142Z 03004KT 07/M02 A3019 RMK A01 T00681022  RH  053%=      5-min Rain = 0
KBR1 180143Z 04004KT 07/M02 A3019 RMK A01 T00681021  RH  053%=      5-min Rain = 0
KBR1 180144Z 04004KT 07/M02 A3019 RMK A01 T00671021  RH  053%=      5-min Rain = 0
KBR1 180145Z 04004KT 07/M02 A3019 RMK A01 T00671021  RH  054%=      5-min Rain = 0
KBR1 180146Z 04004KT 07/M02 A3019 RMK A01 T00661021  RH  054%=      5-min Rain = 0
KBR1 180147Z 04004KT 07/M02 A3019 RMK A01 T00661020  RH  054%=      5-min Rain = 0
KBR1 180148Z 04004KT 07/M02 A302 RMK A01 T00651021  RH  054%=      5-min Rain = 0
KBR1 180149Z 04004KT 07/M02 A302 RMK A01 T00651020  RH  055%=      5-min Rain = 0
KBR1 180150Z 03004KT 06/M02 A302 RMK A01 T00641020  RH  055%=      5-min Rain = 0
KBR1 180151Z 03004KT 06/M02 A302 RMK A01 T00641020  RH  055%=      5-min Rain = 0
KBR1 180152Z 02004KT 06/M02 A302 RMK A01 T00631020  RH  055%=      5-min Rain = 0
KBR1 180153Z 02004KT 06/M02 A302 RMK A01 T00631019  RH  056%=      5-min Rain = 0
KBR1 180154Z 02004KT 06/M02 A302 RMK A01 T00631019  RH  056%=      5-min Rain = 0
KBR1 180155Z 02005KT 06/M02 A302 RMK A01 T00631019  RH  056%=      5-min Rain = 0
KBR1 180156Z 02005KT 06/M02 A302 RMK A01 T00631018  RH  056%=      5-min Rain = 0
KBR1 180157Z 02005KT 06/M02 A302 RMK A01 T00621019  RH  056%=      5-min Rain = 0
KBR1 180158Z 03005KT 06/M02 A302 RMK A01 T00621019  RH  056%=      5-min Rain = 0
KBR1 180159Z 02005KT 06/M02 A302 RMK A01 T00631019  RH  056%=      5-min Rain = 0
KBR1 180200Z 03005KT 06/M02 A302 RMK A01 T00631019  RH  056%=      5-min Rain = 0
KBR1 180201Z 03005KT 06/M02 A302 RMK A01 T00631019  RH  056%=      5-min Rain = 0
KBR1 180202Z 03005KT 06/M02 A302 RMK A01 T00631019  RH  056%=      5-min Rain = 0
KBR1 180203Z 02004KT 06/M02 A302 RMK A01 T00631019  RH  056%=      5-min Rain = 0
KBR1 180204Z 02005KT 06/M02 A302 RMK A01 T00631019  RH  056%=      5-min Rain = 0
KBR1 180205Z 02004KT 06/M02 A302 RMK A01 T00631019  RH  056%=      5-min Rain = 0
KBR1 180206Z 02004KT 06/M02 A302 RMK A01 T00631018  RH  056%=      5-min Rain = 0
KBR1 180207Z 02004KT 06/M02 A3021 RMK A01 T00631018  RH  056%=      5-min Rain = 0
KBR1 180208Z 02004KT 06/M02 A3021 RMK A01 T00631019  RH  056%=      5-min Rain = 0
KBR1 180209Z 02004KT 06/M02 A3021 RMK A01 T00631018  RH  056%=      5-min Rain = 0
KBR1 180210Z 02004KT 06/M02 A3021 RMK A01 T00631017  RH  056%=      5-min Rain = 0
KBR1 180211Z 02004KT 06/M02 A3021 RMK A01 T00631017  RH  057%=      5-min Rain = 0
KBR1 180212Z 02004KT 06/M02 A3021 RMK A01 T00621018  RH  056%=      5-min Rain = 0
KBR1 180213Z 02004KT 06/M02 A3021 RMK A01 T00621018  RH  056%=      5-min Rain = 0
KBR1 180214Z 02004KT 06/M02 A3021 RMK A01 T00631017  RH  057%=      5-min Rain = 0
KBR1 180215Z 03005KT 06/M02 A3021 RMK A01 T00621018  RH  056%=      5-min Rain = 0
KBR1 180216Z 03004KT 06/M02 A3021 RMK A01 T00621019  RH  056%=      5-min Rain = 0
KBR1 180217Z 04004KT 06/M02 A3021 RMK A01 T00621019  RH  056%=      5-min Rain = 0
KBR1 180218Z 04004KT 06/M02 A3021 RMK A01 T00621018  RH  056%=      5-min Rain = 0
KBR1 180219Z 04004KT 06/M02 A3021 RMK A01 T00631017  RH  057%=      5-min Rain = 0
KBR1 180220Z 04004KT 06/M02 A3021 RMK A01 T00631017  RH  056%=      5-min Rain = 0
KBR1 180221Z 04004KT 06/M02 A3021 RMK A01 T00631017  RH  057%=      5-min Rain = 0
KBR1 180222Z 04004KT 06/M02 A3021 RMK A01 T00631017  RH  056%=      5-min Rain = 0
KBR1 180223Z 04003KT 06/M02 A3021 RMK A01 T00631017  RH  057%=      5-min Rain = 0
KBR1 180224Z 04003KT 06/M02 A3021 RMK A01 T00631017  RH  057%=      5-min Rain = 0
KBR1 180225Z 04003KT 06/M02 A3021 RMK A01 T00621017  RH  057%=      5-min Rain = 0
KBR1 180226Z 04003KT 06/M02 A3021 RMK A01 T00621017  RH  057%=      5-min Rain = 0
KBR1 180227Z 03003KT 06/M02 A3021 RMK A01 T00621017  RH  057%=      5-min Rain = 0
KBR1 180228Z 03003KT 06/M02 A3021 RMK A01 T00621017  RH  057%=      5-min Rain = 0
KBR1 180229Z 03003KT 06/M02 A3021 RMK A01 T00621017  RH  057%=      5-min Rain = 0
KBR1 180230Z 03003KT 06/M02 A3021 RMK A01 T00611016  RH  057%=      5-min Rain = 0
KBR1 180231Z 03003KT 06/M02 A3021 RMK A01 T00611016  RH  058%=      5-min Rain = 0
KBR1 180232Z 02004KT 06/M02 A3021 RMK A01 T00601016  RH  058%=      5-min Rain = 0
KBR1 180233Z 02004KT 06/M02 A3022 RMK A01 T00601015  RH  059%=      5-min Rain = 0
KBR1 180234Z 02004KT 06/M02 A3022 RMK A01 T00601015  RH  059%=      5-min Rain = 0
KBR1 180235Z 03004KT 06/M02 A3022 RMK A01 T00601015  RH  059%=      5-min Rain = 0
KBR1 180236Z 03004KT 06/M02 A3022 RMK A01 T00591015  RH  059%=      5-min Rain = 0
KBR1 180237Z 03004KT 06/M02 A3022 RMK A01 T00591015  RH  059%=      5-min Rain = 0
KBR1 180238Z 03004KT 06/M02 A3022 RMK A01 T00591015  RH  059%=      5-min Rain = 0
KBR1 180239Z 03004KT 06/M02 A3022 RMK A01 T00581015  RH  059%=      5-min Rain = 0
KBR1 180240Z 02004KT 06/M02 A3022 RMK A01 T00581015  RH  059%=      5-min Rain = 0
KBR1 180241Z 02004KT 06/M02 A3022 RMK A01 T00581016  RH  059%=      5-min Rain = 0
KBR1 180242Z 02004KT 06/M02 A3022 RMK A01 T00571015  RH  059%=      5-min Rain = 0
KBR1 180243Z 01004KT 06/M02 A3022 RMK A01 T00571015  RH  060%=      5-min Rain = 0
KBR1 180244Z 01004KT 06/M02 A3022 RMK A01 T00561016  RH  060%=      5-min Rain = 0
KBR1 180245Z 01004KT 06/M02 A3022 RMK A01 T00551015  RH  061%=      5-min Rain = 0
KBR1 180246Z 01004KT 05/M02 A3022 RMK A01 T00541015  RH  061%=      5-min Rain = 0
KBR1 180247Z 01004KT 05/M02 A3022 RMK A01 T00541015  RH  061%=      5-min Rain = 0
KBR1 180248Z 01004KT 05/M01 A3022 RMK A01 T00531014  RH  062%=      5-min Rain = 0
KBR1 180249Z 00004KT 05/M02 A3022 RMK A01 T00521015  RH  062%=      5-min Rain = 0
KBR1 180250Z 00004KT 05/M02 A3022 RMK A01 T00511015  RH  062%=      5-min Rain = 0
KBR1 180251Z 00004KT 05/M02 A3022 RMK A01 T00501015  RH  063%=      5-min Rain = 0
KBR1 180252Z 00004KT 05/M01 A3022 RMK A01 T00491014  RH  064%=      5-min Rain = 0
KBR1 180253Z 01005KT 05/M01 A3022 RMK A01 T00471014  RH  064%=      5-min Rain = 0
KBR1 180254Z 01005KT 05/M01 A3022 RMK A01 T00471014  RH  065%=      5-min Rain = 0
KBR1 180255Z 01005KT 05/M01 A3023 RMK A01 T00461014  RH  065%=      5-min Rain = 0
KBR1 180256Z 01005KT 05/M02 A3023 RMK A01 T00451015  RH  065%=      5-min Rain = 0
KBR1 180257Z 01006KT 04/M02 A3023 RMK A01 T00441015  RH  065%=      5-min Rain = 0
KBR1 180258Z 01006KT 04/M02 A3023 RMK A01 T00441015  RH  065%=      5-min Rain = 0
KBR1 180259Z 01006KT 04/M02 A3023 RMK A01 T00441015  RH  065%=      5-min Rain = 0
KBR1 180300Z 01006KT 04/M02 A3023 RMK A01 T00441015  RH  065%=      5-min Rain = 0
KBR1 180301Z 01006KT 04/M02 A3023 RMK A01 T00441015  RH  065%=      5-min Rain = 0
KBR1 180302Z 01007KT 04/M02 A3023 RMK A01 T00441015  RH  065%=      5-min Rain = 0
KBR1 180303Z 01007KT 04/M02 A3023 RMK A01 T00441016  RH  065%=      5-min Rain = 0
KBR1 180304Z 01007KT 05/M02 A3023 RMK A01 T00451017  RH  064%=      5-min Rain = 0
KBR1 180305Z 01007KT 05/M02 A3023 RMK A01 T00451018  RH  064%=      5-min Rain = 0
KBR1 180306Z 01007KT 05/M02 A3023 RMK A01 T00451018  RH  064%=      5-min Rain = 0
KBR1 180307Z 01007KT 05/M02 A3023 RMK A01 T00451018  RH  064%=      5-min Rain = 0
KBR1 180308Z 01006KT 05/M02 A3023 RMK A01 T00451018  RH  064%=      5-min Rain = 0
KBR1 180309Z 01006KT 05/M02 A3023 RMK A01 T00451019  RH  063%=      5-min Rain = 0
KBR1 180310Z 01006KT 04/M02 A3023 RMK A01 T00441019  RH  063%=      5-min Rain = 0
KBR1 180311Z 01006KT 04/M02 A3023 RMK A01 T00441019  RH  064%=      5-min Rain = 0
KBR1 180312Z 01006KT 04/M02 A3023 RMK A01 T00431019  RH  064%=      5-min Rain = 0
KBR1 180313Z 01006KT 04/M02 A3023 RMK A01 T00431019  RH  064%=      5-min Rain = 0
KBR1 180314Z 01006KT 04/M02 A3023 RMK A01 T00431019  RH  064%=      5-min Rain = 0
KBR1 180315Z 02006KT 04/M02 A3023 RMK A01 T00421019  RH  064%=      5-min Rain = 0
KBR1 180316Z 02006KT 04/M02 A3023 RMK A01 T00421019  RH  064%=      5-min Rain = 0
KBR1 180317Z 02006KT 04/M02 A3023 RMK A01 T00421019  RH  064%=      5-min Rain = 0
KBR1 180318Z 02006KT 04/M02 A3023 RMK A01 T00431019  RH  064%=      5-min Rain = 0
KBR1 180319Z 01006KT 04/M02 A3023 RMK A01 T00441018  RH  064%=      5-min Rain = 0
KBR1 180320Z 01006KT 04/M02 A3023 RMK A01 T00441018  RH  064%=      5-min Rain = 0
KBR1 180321Z 01006KT 04/M02 A3024 RMK A01 T00441018  RH  064%=      5-min Rain = 0
KBR1 180322Z 01007KT 05/M02 A3024 RMK A01 T00451018  RH  064%=      5-min Rain = 0
KBR1 180323Z 01007KT 05/M02 A3024 RMK A01 T00451017  RH  064%=      5-min Rain = 0
KBR1 180324Z 01006KT 05/M02 A3024 RMK A01 T00461018  RH  064%=      5-min Rain = 0
KBR1 180325Z 01007KT 05/M02 A3024 RMK A01 T00461018  RH  063%=      5-min Rain = 0
KBR1 180326Z 02006KT 05/M02 A3024 RMK A01 T00461018  RH  063%=      5-min Rain = 0
KBR1 180327Z 01007KT 05/M02 A3024 RMK A01 T00461018  RH  063%=      5-min Rain = 0
KBR1 180328Z 01006KT 05/M02 A3024 RMK A01 T00461018  RH  063%=      5-min Rain = 0
KBR1 180329Z 01007KT 05/M02 A3024 RMK A01 T00471018  RH  063%=      5-min Rain = 0
KBR1 180330Z 01007KT 05/M02 A3024 RMK A01 T00471018  RH  063%=      5-min Rain = 0
KBR1 180331Z 01007KT 05/M02 A3024 RMK A01 T00471018  RH  063%=      5-min Rain = 0
KBR1 180332Z 01006KT 05/M02 A3024 RMK A01 T00481018  RH  062%=      5-min Rain = 0
KBR1 180333Z 02007KT 05/M02 A3024 RMK A01 T00491018  RH  062%=      5-min Rain = 0
KBR1 180334Z 02007KT 05/M02 A3024 RMK A01 T00491018  RH  062%=      5-min Rain = 0
KBR1 180335Z 02007KT 05/M02 A3024 RMK A01 T00491017  RH  062%=      5-min Rain = 0
KBR1 180336Z 02007KT 05/M02 A3024 RMK A01 T00491017  RH  062%=      5-min Rain = 0
KBR1 180337Z 02007KT 05/M02 A3024 RMK A01 T00501017  RH  062%=      5-min Rain = 0
KBR1 180338Z 02007KT 05/M02 A3024 RMK A01 T00501017  RH  062%=      5-min Rain = 0
KBR1 180339Z 02007KT 05/M02 A3024 RMK A01 T00511017  RH  062%=      5-min Rain = 0
KBR1 180340Z 02007KT 05/M02 A3024 RMK A01 T00511017  RH  062%=      5-min Rain = 0
KBR1 180341Z 02007KT 05/M02 A3024 RMK A01 T00511017  RH  061%=      5-min Rain = 0
KBR1 180342Z 02007KT 05/M02 A3024 RMK A01 T00511017  RH  061%=      5-min Rain = 0
KBR1 180343Z 02008KT 05/M02 A3024 RMK A01 T00521016  RH  062%=      5-min Rain = 0
KBR1 180344Z 02007KT 05/M02 A3024 RMK A01 T00521016  RH  061%=      5-min Rain = 0
KBR1 180345Z 01008KT 05/M02 A3024 RMK A01 T00521016  RH  061%=      5-min Rain = 0
KBR1 180346Z 02007KT 05/M02 A3024 RMK A01 T00521016  RH  061%=      5-min Rain = 0
KBR1 180347Z 01007KT 05/M02 A3024 RMK A01 T00521016  RH  061%=      5-min Rain = 0
KBR1 180348Z 01007KT 05/M02 A3024 RMK A01 T00521016  RH  062%=      5-min Rain = 0
KBR1 180349Z 01007KT 05/M02 A3024 RMK A01 T00521015  RH  062%=      5-min Rain = 0
KBR1 180350Z 02007KT 05/M02 A3024 RMK A01 T00521015  RH  062%=      5-min Rain = 0
KBR1 180351Z 02007KT 05/M02 A3024 RMK A01 T00521015  RH  062%=      5-min Rain = 0
KBR1 180352Z 02007KT 05/M02 A3024 RMK A01 T00521015  RH  062%=      5-min Rain = 0
KBR1 180353Z 02007KT 05/M02 A3024 RMK A01 T00521015  RH  062%=      5-min Rain = 0
KBR1 180354Z 02007KT 05/M02 A3024 RMK A01 T00521015  RH  062%=      5-min Rain = 0
KBR1 180355Z 02007KT 05/M02 A3024 RMK A01 T00521015  RH  062%=      5-min Rain = 0
KBR1 180356Z 02007KT 05/M02 A3024 RMK A01 T00521015  RH  062%=      5-min Rain = 0
KBR1 180357Z 02007KT 05/M02 A3024 RMK A01 T00521015  RH  062%=      5-min Rain = 0
KBR1 180358Z 02007KT 05/M02 A3024 RMK A01 T00521015  RH  062%=      5-min Rain = 0
KBR1 180359Z 02007KT 05/M02 A3024 RMK A01 T00521016  RH  061%=      5-min Rain = 0
KBR1 180400Z 02007KT 05/M02 A3024 RMK A01 T00531016  RH  061%=      5-min Rain = 0
KBR1 180401Z 02007KT 05/M02 A3024 RMK A01 T00531016  RH  061%=      5-min Rain = 0
KBR1 180402Z 02008KT 05/M02 A3024 RMK A01 T00531017  RH  061%=      5-min Rain = 0
KBR1 180403Z 02008KT 05/M02 A3024 RMK A01 T00531017  RH  060%=      5-min Rain = 0
KBR1 180404Z 02007KT 05/M02 A3024 RMK A01 T00531018  RH  060%=      5-min Rain = 0
KBR1 180405Z 02007KT 05/M02 A3024 RMK A01 T00531017  RH  061%=      5-min Rain = 0
KBR1 180406Z 02008KT 05/M02 A3024 RMK A01 T00531017  RH  061%=      5-min Rain = 0
KBR1 180407Z 02007KT 05/M02 A3024 RMK A01 T00531017  RH  060%=      5-min Rain = 0
KBR1 180408Z 02007KT 05/M02 A3025 RMK A01 T00531017  RH  060%=      5-min Rain = 0
KBR1 180409Z 02007KT 05/M02 A3025 RMK A01 T00531017  RH  060%=      5-min Rain = 0
KBR1 180410Z 02007KT 05/M02 A3025 RMK A01 T00531017  RH  061%=      5-min Rain = 0
KBR1 180411Z 02006KT 05/M02 A3025 RMK A01 T00531016  RH  061%=      5-min Rain = 0
KBR1 180412Z 02006KT 05/M02 A3025 RMK A01 T00531016  RH  061%=      5-min Rain = 0
KBR1 180413Z 01006KT 05/M02 A3025 RMK A01 T00521016  RH  061%=      5-min Rain = 0
KBR1 180414Z 02006KT 05/M02 A3025 RMK A01 T00521017  RH  061%=      5-min Rain = 0
KBR1 180415Z 02006KT 05/M02 A3025 RMK A01 T00521017  RH  061%=      5-min Rain = 0
KBR1 180416Z 02005KT 05/M02 A3025 RMK A01 T00521017  RH  061%=      5-min Rain = 0
KBR1 180417Z 02006KT 05/M02 A3025 RMK A01 T00521016  RH  061%=      5-min Rain = 0
KBR1 180418Z 02006KT 05/M02 A3025 RMK A01 T00521016  RH  061%=      5-min Rain = 0
KBR1 180419Z 01006KT 05/M02 A3025 RMK A01 T00521016  RH  062%=      5-min Rain = 0
KBR1 180420Z 01006KT 05/M02 A3025 RMK A01 T00521016  RH  061%=      5-min Rain = 0
KBR1 180421Z 01006KT 05/M02 A3025 RMK A01 T00521016  RH  062%=      5-min Rain = 0
KBR1 180422Z 01006KT 05/M02 A3025 RMK A01 T00511016  RH  062%=      5-min Rain = 0
KBR1 180423Z 01006KT 05/M02 A3025 RMK A01 T00511015  RH  062%=      5-min Rain = 0
KBR1 180424Z 01006KT 05/M02 A3025 RMK A01 T00511015  RH  062%=      5-min Rain = 0
KBR1 180425Z 00006KT 05/M02 A3025 RMK A01 T00511015  RH  062%=      5-min Rain = 0
KBR1 180426Z 00006KT 05/M02 A3025 RMK A01 T00501015  RH  063%=      5-min Rain = 0
KBR1 180427Z 01005KT 05/M02 A3025 RMK A01 T00501015  RH  063%=      5-min Rain = 0
KBR1 180428Z 01005KT 05/M02 A3025 RMK A01 T00501015  RH  063%=      5-min Rain = 0
KBR1 180429Z 01005KT 05/M02 A3025 RMK A01 T00491016  RH  063%=      5-min Rain = 0
KBR1 180430Z 01005KT 05/M02 A3025 RMK A01 T00491016  RH  063%=      5-min Rain = 0
KBR1 180431Z 01005KT 05/M02 A3025 RMK A01 T00491016  RH  063%=      5-min Rain = 0
KBR1 180432Z 01005KT 05/M02 A3025 RMK A01 T00491016  RH  063%=      5-min Rain = 0
KBR1 180433Z 01005KT 05/M02 A3025 RMK A01 T00481016  RH  063%=      5-min Rain = 0
KBR1 180434Z 01005KT 05/M02 A3025 RMK A01 T00481016  RH  063%=      5-min Rain = 0
KBR1 180435Z 01006KT 05/M02 A3025 RMK A01 T00471016  RH  064%=      5-min Rain = 0
KBR1 180436Z 01006KT 05/M02 A3025 RMK A01 T00471016  RH  064%=      5-min Rain = 0
KBR1 180437Z 01006KT 05/M02 A3025 RMK A01 T00461016  RH  064%=      5-min Rain = 0
KBR1 180438Z 01006KT 05/M02 A3025 RMK A01 T00461015  RH  064%=      5-min Rain = 0
KBR1 180439Z 01006KT 05/M02 A3025 RMK A01 T00451016  RH  065%=      5-min Rain = 0
KBR1 180440Z 01006KT 05/M02 A3025 RMK A01 T00451016  RH  065%=      5-min Rain = 0
KBR1 180441Z 01006KT 04/M02 A3025 RMK A01 T00441016  RH  065%=      5-min Rain = 0
KBR1 180442Z 00006KT 04/M02 A3026 RMK A01 T00431016  RH  065%=      5-min Rain = 0
KBR1 180443Z 00006KT 04/M02 A3026 RMK A01 T00431016  RH  066%=      5-min Rain = 0
KBR1 180444Z 00006KT 04/M02 A3026 RMK A01 T00431015  RH  066%=      5-min Rain = 0
KBR1 180445Z 00007KT 04/M02 A3026 RMK A01 T00421016  RH  066%=      5-min Rain = 0
KBR1 180446Z 00007KT 04/M02 A3026 RMK A01 T00421016  RH  066%=      5-min Rain = 0
KBR1 180447Z 00007KT 04/M02 A3026 RMK A01 T00421015  RH  066%=      5-min Rain = 0
KBR1 180448Z 36007KT 04/M02 A3026 RMK A01 T00421015  RH  066%=      5-min Rain = 0
KBR1 180449Z 35006KT 04/M02 A3026 RMK A01 T00421015  RH  066%=      5-min Rain = 0
KBR1 180450Z 35006KT 04/M02 A3026 RMK A01 T00411016  RH  066%=      5-min Rain = 0
KBR1 180451Z 36006KT 04/M02 A3026 RMK A01 T00411016  RH  066%=      5-min Rain = 0
KBR1 180452Z 35006KT 04/M02 A3026 RMK A01 T00411016  RH  066%=      5-min Rain = 0
KBR1 180453Z 35005KT 04/M02 A3026 RMK A01 T00411016  RH  066%=      5-min Rain = 0
KBR1 180454Z 35005KT 04/M02 A3026 RMK A01 T00411016  RH  066%=      5-min Rain = 0
KBR1 180455Z 35005KT 04/M02 A3026 RMK A01 T00411016  RH  067%=      5-min Rain = 0
KBR1 180456Z 35005KT 04/M02 A3026 RMK A01 T00401016  RH  067%=      5-min Rain = 0
KBR1 180457Z 35005KT 04/M02 A3026 RMK A01 T00391016  RH  067%=      5-min Rain = 0
KBR1 180458Z 35006KT 04/M02 A3026 RMK A01 T00381016  RH  068%=      5-min Rain = 0
KBR1 180459Z 35006KT 04/M02 A3026 RMK A01 T00381016  RH  068%=      5-min Rain = 0

Page generated in 0.0713 seconds.